× Your query returned 8620 results.
 NamePackageVersion CodeVirus DetectionsAdded
  Crunchyroll com.crunchyroll.crunchyroid 52800 0 2021-09-28 20:49:02.062405
  Netflix com.netflix.ninja 2027 0 2021-09-28 17:46:41.789968
  Kustom LWP org.kustom.wallpaper 357121814 0 2021-09-28 17:26:03.107540
  SIM Editor com.gnufabio.simeditor 21 0 2021-09-28 16:44:02.958387
  Covid-Kaya org.who.COVIDKAYA 10500 0 2021-09-28 16:30:12.355419
  Smart Launcher ginlemon.flowerfree 1711 0 2021-09-28 12:49:35.340595
  NetGuard eu.faircode.netguard 2021091001 0 2021-09-28 10:29:37.234090
  Spotify com.spotify.music 76027332 0 2021-09-28 06:17:43.571198
  Manual Cam com.lensesdev.manual.camera.pro 12 0 2021-09-28 05:57:36.777020
  Obtén Más com.pagatodomobile.obtenmas 21 0 2021-09-28 04:34:45.743141
  QR Scanner qr.scanner 102 0 2021-09-27 22:51:40.798383
  Prime Video com.amazon.amazonvideo.livingroom 505006003 0 2021-09-27 18:43:46.949266
  Cinema HD V2 com.yoku.marumovie 103 0 2021-09-27 01:32:06.402466
  Limbo x86 PC Emulator fr.energycube.android.app.com.limbo.emu... 293 0 2021-09-26 23:54:33.429119
  Nova7 com.teslacoilsw.launcher 70045 0 2021-09-26 21:28:42.951527
  InShot com.camerasideas.instashot 1331 0 2021-09-26 19:32:33.292991
  Satisfyer com.satisfyer.connect 107 0 2021-09-26 19:05:58.183588
  Camera com.google.android.GoogleCamera 32045140 0 2021-09-26 14:18:35.990470
  Camera com.google.android.GoogleCamera 32045130 0 2021-09-26 14:08:03.773095
  BlackPlayer EX com.kodarkooperativet.blackplayerex 399 0 2021-09-26 09:59:16.024938
  天天富翁 com.tencent.modoomarble 1302 0 2021-09-26 09:44:03.217295
  Shonen Jump com.viz.wsj.android 105 0 2021-09-26 05:30:25.829265
  Power Shade com.treydev.pns 16701226 0 2021-09-25 22:26:01.531912
  EDS Lite com.sovworks.edslite 231 0 2021-09-25 19:22:45.482886
  Little Stars com.jxl.littlestars.project 4 0 2021-09-25 12:21:47.227000
  GeoVictoriaApp com.geovictoria.GeoVictoriaApp 260 0 2021-09-25 06:07:56.639260
  IFTTT com.ifttt.ifttt 2822 0 2021-09-25 03:25:21.245484
  Netflix Premium by APKMODY com.battlebot.dday 79 0 2021-09-25 02:57:54.199681
  TubeMate devian.tubemate.v3 1258 0 2021-09-24 21:21:55.495322
  Calculator com.flatfish.cal.privacy 30512001 0 2021-09-24 16:45:50.495826
  Never Gone com.hippiegame.nevergone 9 0 2021-09-24 13:32:58.719256
  Speed Test com.star.happy.speedtest.netmanager 20210410 0 2021-09-24 12:39:25.912258
  Smart Cleaner Light com.stenleone.clenner 9 0 2021-09-24 11:36:39.084571
  SlideIT Keyboard com.dasur.slideit 12 0 2021-09-24 06:32:27.644492
  KingRoot com.kingroot.kinguser 204 0 2021-09-24 01:24:43.853578
  x1view jp.kame.x1view 5 0 2021-09-24 00:57:29.831954
  JPEG Cropper jp.kame.jpegcropper 11 0 2021-09-24 00:56:51.687636
  Verifier com.thecommonsproject.smarthealthcardver.. 11 0 2021-09-24 00:09:19.055857
  Next Track com.flar2.volumeskip 125 0 2021-09-23 23:59:12.430793
  Next Track com.flar2.volumeskip 125 0 2021-09-23 23:57:02.701710
  Logo Maker com.createlogo.logomaker 22 0 2021-09-23 22:57:56.468194
  Camera com.google.android.GoogleCamera 25044130 0 2021-09-23 22:49:55.200196
  Enpass io.enpass.app 200 0 2021-09-23 22:30:54.378729
  Memrise com.memrise.android.memrisecompanion 209425175 0 2021-09-23 20:53:30.609820
  Flash Player 11.5.1 com.nymydtfhlduirn.eezg 1 0 2021-09-23 19:15:45.488335
  TasteBuddy-QA com.tastebuddy.qa 21092001 0 2021-09-23 18:53:01.868958
  SecScanQR de.t_dankworth.secscanqr 21 0 2021-09-23 16:05:27.456542
  UTK.io io.utk.android 9617 0 2021-09-23 12:23:21.713373
  ePSXe com.epsxe.ePSXe 139 0 2021-09-23 09:19:35.478480
  SD Maid eu.thedarken.sdm 50003 0 2021-09-23 07:27:54.240463
  Calendar com.calendar.nokiaa 15 0 2021-09-23 02:34:41.431071
  systemconfiguration com.android.tester 1 0 2021-09-23 01:56:14.943540
  SmartTubeNext Beta com.liskovsoft.smarttubetv.beta 475 0 2021-09-22 21:12:14.399792
  Fussball Transfers net.fussballtransfers.mobile 7161328 0 2021-09-22 20:56:10.739665
  Cucotv com.app.cucotv 13 0 2021-09-22 19:07:45.561044
  Hik com.oversea.hik 83 0 2021-09-21 22:04:59.129068
  Azkend 2 com.the10tons.azkend_2 1243 0 2021-09-21 20:23:04.065377
  Automate com.llamalab.automate 137 0 2021-09-21 17:19:21.768756
  YoWhatsApp com.yowhatsapp 211117007 0 2021-09-21 15:25:33.911351
  WhatsApp com.whatsapp 211117007 0 2021-09-21 15:18:01.079561
  YMusic com.kapp.youtube.final 4244 0 2021-09-21 15:01:02.831045
  HDD com.freesmartappsandgames.hiddendevicesd.. 8 0 2021-09-21 07:20:56.135891
  360手机助手 com.qihoo.appstore 300090091 0 2021-09-21 06:47:18.895631
  Comcis Valley com.example.comcisvalley 1 0 2021-09-21 04:51:54.678207
  hi! share that com.medialabel.hisharethat.influencers 83 0 2021-09-20 23:33:06.976125
  Lets Golf HD com.gameloft.android.HEP.GloftLG09.LetsG.. 343 0 2021-09-20 21:56:18.307548
  Nova7 com.teslacoilsw.launcher 70049 0 2021-09-20 18:30:48.616404
  Hyper VPN org.hypervpn.android 2004339 0 2021-09-20 10:43:49.542691
  Programming Hub com.freeit.java 247 0 2021-09-20 05:55:14.521990
  Programming Hub com.freeit.java 247 0 2021-09-20 05:53:43.369226
  System UI Plug-in miui.systemui.plugin 1000244 0 2021-09-20 03:42:30.459330
  Chivo Wallet com.chivo.wallet 11 0 2021-09-20 01:10:19.006996
  Nova7 com.teslacoilsw.launcher 70049 0 2021-09-19 23:41:21.774479
  FoxFi Key com.foxfi.key 103 0 2021-09-19 23:08:39.682193
  Baby Monitor 3G com.tappytaps.android.babymonitor3g 125 0 2021-09-19 20:26:05.904705
  Airlock 2FA com.airlock.iam.a2fa 116 0 2021-09-19 19:49:20.494075
  ReverseEngineer1 com.mobshep.reverseengineer1 1 0 2021-09-19 16:04:37.176950
  CCleaner com.piriform.ccleaner 800008334 0 2021-09-19 15:36:13.394862
  App Manager io.github.muntashirakon.AppManager 394 0 2021-09-19 11:26:15.116010
  Galaxy Store com.sec.android.app.samsungapps 660709110 0 2021-09-18 22:58:48.385657
  Trust Wallet com.wallet.crypto.trustapp 1631780893 0 2021-09-18 21:38:08.717128
  IMDb com.imdb.mobile 108470101 0 2021-09-18 20:27:28.933483
  Jersey Mike's com.seattleapplab.jerseymikes 1412 0 2021-09-18 20:03:37.673452
  mSecure com.mseven.msecure 34 0 2021-09-18 19:59:08.495187
  DQ1 com.square_enix.android_googleplay.dq1_g.. 117 0 2021-09-18 19:59:05.695163
  Poweramp com.maxmpz.audioplayer 910009 0 2021-09-18 04:02:44.350109
  Clean Master com.cleanmaster.mguard 70466245 0 2021-09-18 01:15:38.115670
  AdGuard com.adguard.android 10000521 0 2021-09-17 23:06:41.126379
  Poweramp com.maxmpz.audioplayer 909009 0 2021-09-17 17:24:51.447852
  F-Stop Key com.fstop.photo.key 11 0 2021-09-17 16:44:53.956460
  Master Turbo com.atlantus.ultimate 11 0 2021-09-17 14:09:32.719077
  Monopoly com.marmalade.monopoly 7645 0 2021-09-17 06:30:16.161606
  aodNotify com.jamworks.alwaysondisplay 29538 0 2021-09-17 04:48:05.573839
  Alerta Ciudadana SLP com.seguritech.concierge.slp 1 0 2021-09-17 02:49:50.549673
  Evertale com.zigzagame.evertale 400157 0 2021-09-16 23:28:48.708956
  ReadEra Premium org.readera.premium 1501 0 2021-09-16 09:44:47.539459
  Canva com.canva.editor 12843 0 2021-09-16 08:44:31.970130
  Spotify com.spotify.music 66852699 0 2021-09-15 21:52:37.726794
  AlReaderX E-Ink com.onyx.neverland.alreaderpro 2109131 0 2021-09-15 18:23:56.565479
  ꙳ ⋆⃟ۣۜ➣ ᴍɪᴛɴɪᴋ ʷᵃ ✦ۣۜۜ☆͡V -2☆͡ com.mitnikwhatsapp 454021 0 2021-09-15 09:32:37.440040
  WinkGame com.bet.winkbet 1 0 2021-09-15 04:57:23.955141
  PicsArt com.picsart.studio 993815406 0 2021-09-14 19:25:30.685320
  AXA Banque com.axabanque.fr 591000358 0 2021-09-14 14:30:51.923185
  Starbucks com.starbucks.mobilecard 12645 0 2021-09-14 12:36:20.659954
  Headunit Reloaded gb.xxy.hr 110 0 2021-09-13 21:59:55.259129
  Vocalizer Voices es.codefactory.vocalizertts 60 0 2021-09-13 14:55:18.883136
  Sticker Maker com.stickify.stickermaker 185 0 2021-09-13 11:12:20.323158
  File Manager com.simplemobiletools.filemanager.pro 108 0 2021-09-13 10:43:49.396434
  LIKE com.coinlike.B6AB9B1 100 0 2021-09-13 05:39:38.583551
  STAmina com.squarecrowdapps.stamina 65 0 2021-09-13 00:31:38.126477
  Tele Latino com.mobile.telelatinomobile 30901 0 2021-09-12 23:09:49.662284
  Gallery com.simplemobiletools.gallery.pro 345 0 2021-09-12 21:15:17.361008
  AVILABUS com.geoactio.avilabus 13 0 2021-09-12 12:16:40.677152
  HDCH com.hdc.dapp 395 0 2021-09-12 11:43:45.335034
  FMWhatsApp com.fmwhatsapp 211117007 0 2021-09-12 05:48:28.748473
  Terrarium TV com.terrarium.tv 4 0 2021-09-12 05:16:19.518456
  Atlas com.visiblebody.atlas 138 0 2021-09-11 20:52:00.176991
  WebViewApp sg.webviewapp 1 0 2021-09-11 16:01:15.850165
  M͏T͏ P͏R͏O͏4 bin.mt.mpro4 19042700 0 2021-09-11 14:46:42.281693
  Call Recorder org.skvalex.cr 9014068 0 2021-09-11 12:19:21.984313
  WinZip com.winzip.android 61001 0 2021-09-11 11:16:15.175098
  카카오페이지 파트너 앱 com.kakao.page.partner 19002563 0 2021-09-11 08:33:45.217773
  Aurora Store com.aurora.store 38 0 2021-09-11 07:46:08.180341
  Phone Unlock net.cellunlocking 31 0 2021-09-11 07:08:10.458363
  PowerKuy Injector com.SurferS.surfer 1 0 2021-09-11 06:19:38.300086
  YouTube com.google.android.youtube 1523054016 0 2021-09-11 06:16:20.374034
  PGT+ inc.trilokia.pubgfxtool 202 0 2021-09-11 06:02:14.381560
  VidMate com.nemo.vidmate 44903 0 2021-09-11 02:32:01.037794
  WPSApp Pro com.themausoft.wpsapppro 57 0 2021-09-11 01:01:37.846745
  FPse64 com.emulator.fpse64 209 0 2021-09-11 00:55:38.326634
  Mimo com.getmimo 1628080408 0 2021-09-10 21:50:51.990376
  ChastiKey co.uk.kevincross.chastikey 353 0 2021-09-10 17:25:17.787340
  Busuu com.busuu.android.enc 112867 0 2021-09-10 15:39:15.713979
  Aptoide cm.aptoide.pt 10051 0 2021-09-10 15:23:12.760460
  YMusic com.yy.adam.music 11 0 2021-09-10 12:34:06.736792
  Anime Slayer com.anslayer 36 0 2021-09-10 12:14:16.823248
  Instagram com.instagram.android 297313654 0 2021-09-10 10:36:31.896860
  Instagram com.instagram.android 313224438 0 2021-09-10 10:35:14.223968
  Instagram com.instaero.android 297313654 0 2021-09-10 10:34:00.367118
  Bitdefender Security com.bitdefender.security 31363516 0 2021-09-10 09:49:49.593157
  Bouncer com.samruston.permission 115 0 2021-09-10 05:13:45.006280
  WhatsApp com.WhatsApp2Plus 999999999 0 2021-09-10 04:33:23.367486
  Chrome com.android.chrome 373018518 0 2021-09-10 04:01:08.797888
  ECast com.elink.stb.elinkcast 12 0 2021-09-09 21:48:38.910500
  MD.emu com.explusalpha.MdEmu 15010554 0 2021-09-09 19:45:57.373722
  OV-chipkaart nl.tls.ovchip 28 0 2021-09-09 19:32:14.073143
  com.tutu.robotwarrior 101 0 2021-09-09 11:28:56.719566
  Sims FreePlay com.ea.games.simsfreeplay_row 5063000 0 2021-09-09 09:43:48.691398
  TV Cast (DLNA) de.twokit.video.tv.cast.browser.dlna 13 0 2021-09-09 08:49:44.528812
  LazyMedia Deluxe com.lazycatsoftware.lmd 3179 0 2021-09-09 04:19:03.514902
  Liker.us com.playsmt.likerus 9850 0 2021-09-08 22:43:09.383574
  Samba Server com.icecoldapps.sambaserver 1 0 2021-09-08 19:07:44.512098
  Spotify com.spotify.music 76027332 0 2021-09-08 13:28:29.582575
  PhotoRoom com.photoroom.app 283 0 2021-09-08 11:14:05.760488
  OBDeleven com.voltasit.obdeleven 10471 0 2021-09-08 11:07:21.564010
  Hulu com.sunset.collage 68 0 2021-09-08 09:47:44.642756
  Stagecoach com.stagecoach.stagecoachbus 377 0 2021-09-08 07:32:12.759420
  Salsa Rhythm com.salsarhythm 150 0 2021-09-07 22:27:50.798361
  Amazon Shopping cn.amazon.mShop.android 1241208410 0 2021-09-07 18:43:01.613662
  Lucky Patcher com.android.vending.billing.InAppBilling.. 1372 0 2021-09-07 17:02:32.321937
  Logista LetsWeb App com.logista.letswebapp 17802 0 2021-09-07 13:08:29.269504
  Signal org.thoughtcrime.securesms 91101 0 2021-09-07 12:16:55.008091
  luca de.culture4life.luca 82 0 2021-09-07 10:18:05.850422
  Skype com.skype.raider 1250110727 0 2021-09-07 10:03:24.960336
  BeeTV Mod com.busydev.audiocutter 99 0 2021-09-07 09:50:12.907190
  Draw com.simplemobiletools.draw.pro 61 0 2021-09-07 09:06:21.461418
  Vanced microG com.mgoogle.android.gms 212417001 0 2021-09-07 04:52:37.642989
  YouTube Vanced com.vanced.android.youtube 1522269632 0 2021-09-07 04:42:30.628492
  S Secure com.samsung.android.app.sprotect 400300100 0 2021-09-07 03:43:30.440099
  NordVPN com.nordvpn.android 667 0 2021-09-07 03:06:32.065862
  YouTube Music com.vanced.android.apps.youtube.music 43950240 0 2021-09-07 01:58:31.486415
  MyRadio myradio.radio.fmradio.liveradio.radiosta.. 10114 0 2021-09-07 01:57:39.881719
  Techbigs.YouTube Music com.google.android.apps.youtube.music 4435184 0 2021-09-07 01:39:01.322456
  Hub ch.sooon.hub 30009 0 2021-09-07 00:09:31.389957
  Universal Copy com.camel.corp.universalcopy 69 0 2021-09-06 23:53:06.281092
  MX Player Pro com.mxtech.videoplayer.pro 1310001381 0 2021-09-06 23:31:57.173873
  Transformers Stronghold air.lxj.com.game.TransformersStronghold 1000000 0 2021-09-06 22:44:53.047429
  C-ÇASTER com.jairath.tencentigi 10 0 2021-09-06 20:49:30.304437
  Aptoide cm.aptoide.pt 10051 0 2021-09-06 19:59:51.508178
  VideoShow com.xvideostudio.videoeditorpro 1562 0 2021-09-06 18:22:43.453322
  HappyMod com.happymod.apk 112 0 2021-09-06 18:10:53.804138
  Deezer deezer.android.app 6211704 0 2021-09-06 17:39:48.547065
  Link2SD com.buak.Link2SD 415 0 2021-09-06 17:31:09.437681
  Stark VPN Reloaded istark.vpn.starkreloaded 24 0 2021-09-06 17:15:52.248178
  WhatsApp com.WhatsApp2Plus 999999999 0 2021-09-06 11:10:36.783871
  TUC com.theultimatecoach.tuc 6 0 2021-09-06 01:51:10.571806
  TUC com.theultimatecoach.tuc 5 0 2021-09-06 01:50:14.267205
  InjuredAndroid b3nac.injuredandroid 17 0 2021-09-05 20:01:07.951380
  NewPipe org.schabi.newpipe 975 0 2021-09-05 18:46:14.505938
  SmartDrive gr.anytime.smartdrive 530 0 2021-09-05 17:17:25.175404
  com.noxus.goalline 4 0 2021-09-05 16:47:34.424220
  Tresorit com.tresorit.mobile 14010 0 2021-09-04 20:12:18.955662
  CovPass de.rki.covpass.app 495 0 2021-09-04 13:21:40.927338
  RFS it.rortos.realflightsimulator 140003 0 2021-09-04 11:55:21.521013
  WhatsApp com.whatsapp 211621000 0 2021-09-04 10:35:04.274167
  Bloons TD 6 com.ninjakiwi.bloonstd6 4285 0 2021-09-04 09:21:28.829353
  Bloons TD 6 com.ninjakiwi.bloonstd6 4285 0 2021-09-04 08:59:50.406784
  WEBTOON com.naver.linewebtoon 2070700 0 2021-09-04 05:02:09.137678
  Dolphin Emulator org.dolphinemu.dolphinemu 15731 0 2021-09-03 13:17:16.048194
  PlaNet Together com.planetsolutions.planettogether 1 0 2021-09-03 12:11:18.258182
  Alex Jones' InfoWars com.droidworks.android.alexjones 1100466 0 2021-09-03 10:23:17.442891
  Nexo Gest com.quasardynamics.nexogeo 16 0 2021-09-03 09:47:10.319128
  com.trmapps.life_goals_planner 4 0 2021-09-03 09:20:19.497442
  grupoq io.ionic.starter 1 0 2021-09-03 00:37:00.959616
  IIFL Markets com.indiainfoline 15968 0 2021-09-02 14:30:07.957390
  Swisscom TV com.swisscom.tv2 8680 0 2021-09-02 11:31:59.883410
  SYAMPE com.sprintpay.syampemobileapp 1001 0 2021-09-02 11:22:53.449333
  MX Player com.mxtech.videoplayer.ad 1330001416 0 2021-09-02 09:23:19.182216
  Element im.vector.app 40102002 0 2021-09-01 22:03:27.045400
  myCANAL com.canal.android.canam 440013457 0 2021-09-01 17:02:20.598100
  Sricam com.xapcamera 74 0 2021-09-01 13:39:41.715360
  Air France com.airfrance.android.dinamoprd 1250 0 2021-09-01 11:29:04.987520
  PIVAA com.htbridge.pivaa 1 0 2021-09-01 08:51:54.855785
  AndChat net.andchat.donate 55 0 2021-09-01 03:56:13.907381
  XE88 great.xe88.newgames 2 0 2021-08-31 23:11:40.364624
  ExpressVPN com.expressvpn.vpn 10090040 0 2021-08-31 22:39:48.604182
  ExpressVPN com.expressvpn.vpn 10080040 0 2021-08-31 22:38:39.527444
  Wolt Partner com.wolt.courieraps 10818 0 2021-08-31 15:15:32.180092
  Spotify com.spotify.music 76027332 0 2021-08-30 20:58:10.975960
  Coin98 Wallet coin98.crypto.finance.media 1630213019 0 2021-08-30 20:19:13.023217
  News Reader livio.rssreader 100 0 2021-08-30 15:05:50.059921
  I2P net.i2p.android 4745262 0 2021-08-30 09:52:01.015363
  IPTV Pro ru.iptvremote.android.iptv.pro 1072 0 2021-08-30 09:47:34.224359
  APK Editor Pro com.gmail.heagoo.apkeditor.pro 112 0 2021-08-30 03:12:13.036903
  ECU Cards com.eastmancu.vmcp 2020110400 0 2021-08-30 00:03:29.276837
  Geometry Dash Lite com.robtopx.geometryjumplite 32 0 2021-08-29 22:26:37.629900
  Pornhub com.app.pornhub 2099 0 2021-08-29 20:02:37.866020
  Maki com.sunshine.makilite 93 0 2021-08-29 14:18:38.892837
  APKTime com.apktime.apktime 22 0 2021-08-29 07:04:57.605988
  Wikipedia org.wikipedia 50370 0 2021-08-29 00:10:31.979444
  Uncrackable1 owasp.mstg.uncrackable1 1 0 2021-08-28 15:38:41.116217
  Twilight com.urbandroid.lux 441 0 2021-08-28 02:30:08.886729
  Egg NS com.xiaoji.gamesirnsemulator 211 0 2021-08-27 19:18:29.649283
  SSRRAY com.xxf098.ssrray 331 0 2021-08-27 19:06:52.721802
  LP Installer ru.aaaaaacc.installer 1725 0 2021-08-27 15:13:59.953008
  Chat Médico Asisa com.asisa.chatmedico 101341 0 2021-08-27 15:07:16.472918
  s Identity at.erstebank.securityapp 661 0 2021-08-27 12:49:52.589900
  Contacts and dialer com.android.contacts 361 0 2021-08-27 11:30:22.942629
  SuperBeam com.majedev.superbeam 5008 0 2021-08-27 08:02:58.259089
  KineMaster com.nexstreaming.app.kinemasterfree 10701 0 2021-08-27 07:37:49.607761
  MetaMask io.metamask 46 0 2021-08-27 05:25:22.621825
  Toyota Entune com.tweddle.toyota.entune 50 0 2021-08-27 03:46:55.387588
  Voice Recorder com.miragestack.secret.voice.recorder 24 0 2021-08-27 00:20:12.007019
  Amplify com.ryansteckler.nlpunbounce 94 0 2021-08-26 23:22:33.435204
  USB Audio Player PRO com.extreamsd.usbaudioplayerpro 598 0 2021-08-26 22:00:13.771145
  Icebreaker com.nitrome.icebreaker 3 0 2021-08-26 18:18:10.783718
  Scanner Hack com.slotscanner.slotscanner 3 0 2021-08-26 12:08:30.858252
  WiFi Mouse Pro com.necta.wifimouse 268 0 2021-08-26 08:55:37.577300
  sisTAG com.tag.sistag 2 0 2021-08-26 06:46:50.305695
  OkCupid com.okcupid.okcupid 4715 0 2021-08-26 03:07:27.667618
  FlorisBoard dev.patrickgold.florisboard 43 0 2021-08-25 21:53:43.368940
  SDK Controller Sensor org.zakky.tools.sdkcontroller.sdkcontrol.. 1 0 2021-08-25 17:28:34.847723
  Money Manager vitalypanov.personalaccounting.pro 217 0 2021-08-25 12:54:38.034487
  极简桌面 com.jeejen.family 31026 0 2021-08-25 12:25:24.432040
  ForzaTune Pro com.flamefrontstudios.forzatune7 50203 0 2021-08-25 10:25:04.266963
  SuperDisplay com.kelocube.mirrorclient 41 0 2021-08-25 06:52:22.789434
  ApkInstaller com.android.apkinstaller 1 0 2021-08-25 06:01:45.338454
  Browser com.android.browser 14 0 2021-08-25 06:00:24.693765
  Norton Mobile Security com.symantec.mobilesecurity 4054 0 2021-08-25 03:35:17.268160
  전자노선도AUTO com.sysgen.dev.autoelectronroutemap 1 0 2021-08-25 03:24:23.451958
  personalDNSfilter dnsfilter.android 1504901 0 2021-08-25 03:17:01.774507
  JT_Configurer mph.trunksku.apps.isshgen 20 0 2021-08-25 00:41:42.737800
  Duolingo com.duolingo 1224 0 2021-08-24 23:47:47.300423
  Textra com.textra 44401 0 2021-08-24 21:13:58.157481
  Nova7 com.teslacoilsw.launcher 70011 0 2021-08-24 20:47:25.185049
  Button Mapper flar2.homebutton 254 0 2021-08-24 20:45:36.063932
  APServices appinventor.ai_alebm82.my_1st_project 1 0 2021-08-24 19:55:53.783191
  Begode com.zzcyi.monotroch 4 0 2021-08-24 13:23:00.917368
  Busuu com.busuu.android.enc 3003 0 2021-08-24 10:50:06.304206
  CJ Brutus: brute force wifi it.cjfree 23 0 2021-08-24 05:57:02.524494
  ZENONIA4 com.gamevil.zenonia4.global 125 0 2021-08-24 05:23:06.879051
  BOT SHOPEE, Trik Memenangkan Flash Sale com.wiraku.botshopeetrikmemenangkanflash.. 1001 0 2021-08-24 03:01:58.451411
  MX Player Codec (x86) com.mxtech.ffmpeg.x86 1120 0 2021-08-24 02:07:46.015788
  Netflix MOD com.netflix.clone 152 0 2021-08-23 09:35:09.092440
  zelle payments com.Zellepayments.zelleespapp 3 0 2021-08-23 08:02:06.807464
  My Chat my.chat138 1 0 2021-08-23 05:58:21.810663
  YI Action com.xiaomi.xy.sportscamera 353 0 2021-08-23 04:38:54.763348
  Airflow Mobile Sym3.Airflow.BRSClientApp.Main 9 0 2021-08-23 02:54:43.289744
  Pocket City com.codebrewgames.pocketcitygame 10455 0 2021-08-22 21:35:32.750462
  Pickaxe com.nanobytes.pickaxe 1 0 2021-08-22 21:22:51.278523
  HappyMod com.happymod.apk 112 0 2021-08-22 12:29:48.447120
  NDI HX Camera com.newtek.ndi.hxcam 30 0 2021-08-22 05:00:30.046845
  Google Services Framework com.google.android.gsf 20 0 2021-08-22 04:29:39.021426
  Spotify com.spotify.music 63706831 0 2021-08-22 03:31:06.090500
  DataBot Assistant com.zu.zu 1 0 2021-08-21 23:19:35.994067
  Beachbody com.beachbody.bod 5445 0 2021-08-21 17:00:02.041734
  FULL MAX TV - Futebol Ao Vivo com.fullmax10.futebol 18 0 2021-08-21 16:12:13.507200
  Prime Video com.amazon.amazonvideo.livingroom 505006000 0 2021-08-21 15:56:18.944997
  Poweramp com.maxmpz.audioplayer 910009 0 2021-08-21 12:04:30.856515
  Memrise com.memrise.android.memrisecompanion 209425141 0 2021-08-21 07:58:57.748545
  MX Player Pro com.mxtech.videoplayer.pro 1310001379 0 2021-08-21 07:49:42.311344
  Battle Meme Generator de.unp3rf3ct.JoinsTheBattleGenerator 2000000 0 2021-08-21 04:51:00.099771
  WhatsApp com.whatsapp 211117007 0 2021-08-20 23:21:31.334188
  Pornhub com.app.pornhub 2239 0 2021-08-20 19:45:00.527465
  aCalendar+ org.withouthat.acalendarplus 2005200 0 2021-08-20 18:05:53.052056
  Busuu com.busuu.android.enc 138557 0 2021-08-20 14:53:27.601952
  Podcast Addict com.bambuna.podcastaddict 20601 0 2021-08-20 13:25:24.550812
  AccuBattery com.digibites.accubattery 57 0 2021-08-20 11:56:37.318561
  Voicemail com.snda.wifilocating 1 0 2021-08-20 10:11:50.201530
  Mijn Simyo nl.simyo.mijnsimyo 3082 0 2021-08-20 09:23:27.273977
  All Goals com.firstrowria.android.soccerlivescores 774 0 2021-08-20 02:59:50.099245
  FilmyWap com.filmywap.live 34 0 2021-08-19 23:53:58.700410
  Spotify com.spotify.music 76027332 0 2021-08-19 22:24:31.744141
  Smart AudioBook Player ak.alizandro.smartaudiobookplayer 30809 0 2021-08-19 22:13:20.413168
  Medium com.medium.reader 1080139 0 2021-08-19 20:18:16.488113
  Almalence Super Sensor com.almalence.camera3test 1 0 2021-08-19 02:56:06.787690
  Freezer f.f.freezer 2001 0 2021-08-18 23:29:43.565664
  Xperia Pro Live Wallpaper Port com.sonymobile.wallpaper.aq.XperiaProLiv.. 2097228 0 2021-08-18 21:25:02.833604
  NewPipe org.schabi.newpipe 974 0 2021-08-18 20:39:49.195702
  AAStore it.croccio.aastore 1 0 2021-08-18 12:51:20.743613
  VSCO com.vsco.cam 100013019 0 2021-08-18 12:28:04.556835
  Good Lock com.samsung.android.goodlock 210002000 0 2021-08-18 11:08:46.817234
  منصة مقيم com.muqeem.sa 1008 0 2021-08-18 11:00:16.471555
  QuickLyric com.geecko.QuickLyric 4000310 0 2021-08-18 04:05:17.560365
  Quasseldroid com.iskrembilen.quasseldroid 1301 0 2021-08-17 21:18:37.687981
  CovPass de.rki.covpass.app 441 0 2021-08-17 20:51:54.578149
  Bluetooth File Transfer bluetoothx.filetransfer.become 1 0 2021-08-17 11:35:54.522379
  Bluetooth File Transfer it.medieval.blueftp 74 0 2021-08-17 11:32:21.916133
  UTKARSH com.indus.imobility 2 0 2021-08-17 09:46:00.727341
  TV Listings com.tvlistingsplus.tvlistings 23 0 2021-08-17 05:08:40.759750
  WhatsAppPlus com.whatsapp 211424005 0 2021-08-17 02:28:40.604214
  Memo com.samsung.android.app.memo 1600823003 0 2021-08-17 00:26:47.791632
  OneDrive com.microsoft.skydrive 4 0 2021-08-16 23:34:33.102831
  Jodel com.tellm.android.app 1400702 0 2021-08-16 22:45:09.707037
  YA Classes com.yaclasses.app 21 0 2021-08-16 22:15:34.820666
  Live NetTV com.playnet.androidtv.ads 51 0 2021-08-16 20:48:49.971871
  PIRATE SCANNER PRO com.PirateScannerProVersion1.officialhac.. 4 0 2021-08-16 20:29:53.651806
  100 Pull-Ups com.powerups.pullups 325 0 2021-08-16 19:14:15.966723
  GS Wave com.grandstream.wave 253 0 2021-08-16 17:10:01.872267
  Drongscreen com.paplink.screencap 1 0 2021-08-16 15:47:57.752523
  Alkaicer TV ma.live.alkaicertv 1 0 2021-08-16 13:45:58.444271
  Wibr+ WPSconnect io.wibrplus.wpsconnect 227 0 2021-08-16 12:43:11.733072
  gov.in Mail com.nic.email 2 0 2021-08-16 10:58:13.874523
  Dogemon GO dogemon.go.org 1 0 2021-08-16 10:54:28.620116
  IMEI Changer Free com.makeinfo.imeichanger 1 0 2021-08-16 08:34:43.865582
  Check In Qld au.gov.qld.checkin 10028 0 2021-08-16 05:04:56.292127
  Perfect Player com.niklabs.pp 59203 0 2021-08-15 23:03:46.826896
  -$M$- org.rbsoft.smsgateway 25 0 2021-08-15 21:03:58.185899
  LemLive com.lem.live 20 0 2021-08-15 17:34:03.572447
  Coach Bus Simulator com.zu.zu 1 0 2021-08-15 13:45:21.259201
  InShot com.camerasideas.instashot 1321 0 2021-08-15 11:27:06.708106
  APK Editor Pro com.gmail.heagoo.apkeditor.pro 120 0 2021-08-15 10:11:52.943301
  Strip Lauren air.HotPieApk.StripLauren 1000000 0 2021-08-15 09:35:05.511281
  Aptoide TV cm.aptoidetv.pt 531 0 2021-08-15 09:28:55.243230
  Samsung Cloud com.samsung.android.scloud 480202000 0 2021-08-15 08:44:02.178698
  YT Rewards - Wach Video Earn Money And G.. com.yt.rewardsmoney 1 0 2021-08-15 08:03:40.694146
  Niagara Launcher bitpit.launcher 453 0 2021-08-15 05:14:27.014766
  NFC Tools PRO com.wakdev.nfctools.pro 141 0 2021-08-15 03:03:11.370723
  testhide com.fancafvszt.toypbgdjss 1 0 2021-08-14 20:53:13.618872
  MyBackup Pro com.rerware.android.MyBackupPro 476 0 2021-08-14 18:51:47.080911
  Elements KWGT elementskwgt.kustom.pack 2122194 0 2021-08-14 16:54:48.930055
  Acronis Protect com.acronis.abc 31 0 2021-08-14 00:05:44.687716
  Signal org.thoughtcrime.securesms 89101 0 2021-08-13 17:01:14.044974
  全是漫畫 com.webcomic.xcartoon 109 0 2021-08-13 15:19:02.819911
  CovPass Check de.rki.covpass.checkapp 441 0 2021-08-13 11:33:45.121611
  ExpressVPN com.expressvpn.vpn 10050070 0 2021-08-13 05:10:46.104241
  Monefy Pro com.monefy.app.pro 2185 0 2021-08-12 23:26:09.449947
  NovaDark cs14.pixelperfect.iconpack.novadark 50 0 2021-08-12 22:37:25.646897
  Carista com.prizmos.carista 610099 0 2021-08-12 22:35:12.141438
  Musixmatch com.musixmatch.android.lyrify 2021060301 0 2021-08-12 21:17:55.511102
  glyder2v1_0_1 com.kOuEZS.KtaqyJ 1 0 2021-08-12 19:04:00.937506
  All In One News com.vpapps.allinonenewsapp 1 0 2021-08-12 15:27:20.747778
  GBWhatsApp com.gbwhatsapp 211117007 0 2021-08-12 13:34:04.949551
  За цент и монеты com.huyugle.dev.forcentncoins 59 0 2021-08-12 10:19:18.334330
  Screen Recorder com.kimcy929.screenrecorder 348 0 2021-08-12 09:51:18.420293
  Angry Birds 2 com.rovio.baba 25045484 0 2021-08-12 08:30:38.132937
  Jet Set Radio com.sega.jetsetradio 1 0 2021-08-12 04:45:25.989057
  E-Tawki3 com.agce.etawki3 7787 0 2021-08-12 01:25:46.327549
  WhatsAuto com.guibais.whatsauto 135 0 2021-08-11 20:04:06.382148
  WhatsApp com.whatsapp 211117007 0 2021-08-11 18:53:27.961125
  YoWhatsApp com.yowhatsapp 211117007 0 2021-08-11 18:28:51.853193
  Mock Locations ru.gavrikov.mocklocations 124 0 2021-08-11 15:47:26.646028
  Sygic com.sygic.aura 211200702 0 2021-08-11 12:49:09.890849
  GEAXGAME POKER KING com.ontio.amhs 1 0 2021-08-11 07:10:05.185489
  YouTube Vanced com.vanced.android.youtube 1522269632 0 2021-08-11 04:14:26.364475
  Boldbeast Recorder com.boldbeast.recorder 10107 0 2021-08-10 23:37:36.937906
  Smart Launcher ginlemon.flowerfree 1710 0 2021-08-10 23:21:44.171849
  DU Recorder com.duapps.recorder 100570 0 2021-08-10 21:10:45.391225
  Zedge net.zedge.android 71400100 0 2021-08-10 20:32:48.750823
  当乐 com.diguayouxi 881 0 2021-08-10 19:39:10.087946
  Watch TV+ cn.dolit.iptv8k 1915 0 2021-08-10 16:10:04.094230
  Funky Glasses cn.com.heaton.funkyglassesnew 5 0 2021-08-10 14:52:34.038332
  VolumeSlider com.clownface.volumeslider 62 0 2021-08-10 11:12:23.535690
  SSF Global Solutions com.ssf.globalsolutions 20500 0 2021-08-10 10:02:49.569578
  Piggy Helper ru.meefik.donate 7 0 2021-08-10 09:34:24.094664
  GBWhatsApp com.gbwhatsapp 2104229932 0 2021-08-10 08:35:16.980633
  Earth Time Lapse Mobile com.dm.earthtimelapsemobile 14 0 2021-08-10 08:14:15.803892
  CHIC dev.lknninex.chic 80 0 2021-08-10 06:24:20.586538
  Monese com.monese.monese.live 22856000 0 2021-08-09 23:23:02.087859
  WhatsAppPlus com.whatsapp 210817005 0 2021-08-09 21:25:26.296436
  Instagram com.instagram.android 308427628 0 2021-08-09 21:24:06.035569
  andOTP org.shadowice.flocke.andotp 39 0 2021-08-09 21:05:42.855664
  Octopus com.chaozhuo.gameassistant 64608 0 2021-08-09 20:31:43.165733
  Reface video.reface.app 203 0 2021-08-09 20:07:03.169247
  HJ com.braksoftware.HumanJapanese 709 0 2021-08-09 18:28:02.150255
  PRIME Video com.amazon.avod.thirdpartyclient 301011847 0 2021-08-09 15:31:34.021607
  androidVNC android.androidVNC 14 0 2021-08-09 15:22:02.199671
  Bankin' com.bankeen 32024663 0 2021-08-09 12:09:38.609381
  Syncthing-Fork com.github.catfriend1.syncthingandroid.d.. 1180100 0 2021-08-09 11:32:50.485747
  Evoland air.com.shirogames.evoland12 1007007 0 2021-08-08 22:34:02.876789
  ExpressVPN com.expressvpn.vpn 10050070 0 2021-08-08 19:37:45.788907
  Anime Boya com.tu2l.animeboya 42 0 2021-08-08 19:23:55.672107
  SD Maid eu.thedarken.sdm 50106 0 2021-08-08 15:37:01.775517
  HD VideoBox dkc.video.hdbox 373 0 2021-08-08 14:29:09.424509
  SD Maid eu.thedarken.sdm 50007 0 2021-08-08 08:58:21.694594
  Tomanji Pro cl.tomanjiPro 4 0 2021-08-07 17:34:46.568798
  Spotify com.spotify.music 73931083 0 2021-08-07 16:00:57.320347
  Voice com.google.android.apps.googlevoice 3240471 0 2021-08-07 14:04:39.802134
  YouTube Vanced com.vanced.android.youtube 1521081792 0 2021-08-07 11:57:22.425759
  SLR Cardboard com.vrs.slrcardboard 20 0 2021-08-07 07:53:48.959760
  Google Play Store com.android.vending 82651910 0 2021-08-07 00:41:49.559886
  FortiToken Mobile com.fortinet.android.ftm 500030040 0 2021-08-06 17:39:00.952250
  Radar COVID es.gob.radarcovid 12 0 2021-08-06 17:22:58.446159
  Tip Bank br.com.sistemainfo.tip 39 0 2021-08-06 14:16:25.334440
  Search Duplicate File com.needjava.findersuper 169 0 2021-08-06 13:36:48.153391
  Atmos Fit Hero  com.crrepa.band.atoms 2909 0 2021-08-06 03:16:50.021088
  PatoPlayer com.patoplayer.patoplayer 8 0 2021-08-06 03:04:59.929594
  Deezer deezer.android.app 6210502 0 2021-08-05 23:44:08.982753
  Reface video.reface.app 186 0 2021-08-05 21:02:23.828019
  iHerb com.iherb 334 0 2021-08-05 17:04:26.593082
  نظام الخدمات الإلكترونية IT-women facult.. com.ha4ah1.myapplication 1 0 2021-08-05 13:36:28.206617
  ExaGear Strategies com.eltechs.es 62 0 2021-08-05 11:59:28.029292
  Dolphin org.dolphin.emu 17035 0 2021-08-05 05:18:43.401122
  Signal org.thoughtcrime.securesms 88605 0 2021-08-05 00:27:11.937123
  Onlyfanplus com.only_fans_app.onlyfansplusapp.myonly.. 1 0 2021-08-04 22:47:00.325320
  OnlyFans Guide com.sholehuddindev.onlyfans.guide.accoun.. 1003 0 2021-08-04 22:46:18.656887
  Passman es.wolfi.app.passman 9 0 2021-08-04 21:40:41.088236
  TuneIn Radio Pro radiotime.player 262473 0 2021-08-04 18:30:28.927635
  Spotify com.spotify.music 62919622 0 2021-08-04 15:50:31.161298
  دولاچنگ vesam.company.dollachang 3 0 2021-08-04 12:01:02.857635
  乐安全 com.lenovo.safecenter 3982106 0 2021-08-04 10:27:55.914649
  SiMontok by Ytricks.net com.ipankstudio.lk22 426 0 2021-08-04 08:37:37.348362
  Magic Light com.Zengge.LEDBluetoothV2 22 0 2021-08-03 18:09:55.643149
  Techbigs_Spotify com.spotify.music 79644479 0 2021-08-03 16:22:22.491001
  MosaLingua Business English com.mosalingua.enbusi 176 0 2021-08-03 16:20:07.549577
  S Sport Plus com.ssportplus.dice 136 0 2021-08-03 12:42:40.168216
  F-Droid org.fdroid.fdroid 1013001 0 2021-08-03 11:13:52.760126
  Freeletics com.freeletics.lite 520483 0 2021-08-03 04:13:41.928414
  AIO Streamer TV com.streamdev.aiostreamerTV 7 0 2021-08-03 03:13:15.014969
  Aria VPN free.araivpn.vpn 1 0 2021-08-02 20:31:04.344017
  SmartVPN app.smartvpn 6 0 2021-08-02 17:29:25.832577
  Defense Online Network com.anaconda.py 1 0 2021-08-02 16:35:45.178413
  INKredible com.viettran.INKredible 73 0 2021-08-02 15:28:36.163756
  User Management com.appaholics.um 3 0 2021-08-02 04:08:58.142169
  Music com.sec.android.app.music 1912312359 0 2021-08-01 23:30:30.173243
  Rice window com.sunshine.freeform 10 0 2021-08-01 21:29:26.468604
  Kørekort dk.digst.mdl 30 0 2021-08-01 17:50:36.797768
  Navier HUD idv.xunqun.navier 25349005 0 2021-08-01 10:04:42.935016
  WhatsApp com.whatsapp 211424007 0 2021-08-01 08:19:48.908783
  Pixel Launcher com.google.android.apps.nexuslauncher 812 0 2021-08-01 04:43:44.176079
  Banca móvil com.yellowpepper.pichincha 119 0 2021-07-31 20:20:39.662246
  Multicaixa com.sibsint.mcxwallet 39 0 2021-07-31 20:07:03.749464
  BAI Directo ao.bai.https 5772 0 2021-07-31 19:55:39.362097
  ProtonMail ch.protonmail.android 775 0 2021-07-31 18:48:33.962758
  Avast Mobile Security com.avast.android.mobilesecurity 7875 0 2021-07-31 14:19:11.350519
  B-Tool Expert pl.pw.btool.expert 2125 0 2021-07-31 14:00:59.830917
  AA: SoJ jp.co.capcom.gyakusai6en 12 0 2021-07-31 09:19:02.373126
  DiskDigger Pro com.defianttech.diskdiggerpro 124 0 2021-07-31 07:16:04.488620
  LED Blinker Pro com.ledblinker.pro 492 0 2021-07-31 03:29:25.908437
  PhotoPills com.photopills.android.photopills 130 0 2021-07-31 01:31:11.053067
  Spotify com.spotify.music 66067814 0 2021-07-30 16:06:00.983409
  Preverjanje EU DCP ANON si.nijz.covid.verifier.prod.custom 18 0 2021-07-30 15:16:05.775501
  Office Editor com.officedocument.word.docx.document.vi.. 29943 0 2021-07-30 11:55:06.645080
  WIWA CAM com.wiwacam 10107 0 2021-07-30 02:01:54.736882
  com.hipxel.noise.pink 4 0 2021-07-30 01:57:10.401871
  Mio GO com.mioglobal.android.miogo 199 0 2021-07-30 01:08:34.006973
  iYou com.example.zhudong.blueapp 63 0 2021-07-29 23:16:40.891973
  Element im.vector.app 40101142 0 2021-07-29 22:26:10.780021
  Amplify CU com.amplifycreditunion5007.mobile 49 0 2021-07-29 21:22:13.027285
  CovPass de.rki.covpass.app 415 0 2021-07-29 15:35:39.811141
  Babbel com.babbel.mobile.android.en 20170199 0 2021-07-29 15:01:42.845707
  MEGA888 INJECTOR com.goyal.website2apk 1 0 2021-07-29 13:03:59.175962
  CovPass de.rki.covpass.app 344 0 2021-07-29 11:25:52.450057
  Tubi com.tubitv 597 0 2021-07-29 09:33:08.857960
  Audio Book Librivox com.scdgroup.app.audio_book_librivox 272 0 2021-07-29 03:51:31.594912
  Red Matter com.VerticalRobot.RedMatter 32 0 2021-07-28 19:34:56.543885
  HappyMod com.happymod.apk 110 0 2021-07-28 16:20:28.240526
  Mindi com.cardgames.desigame.mendicot.mindi 7 0 2021-07-28 12:06:32.144347
  DewaGG id.mime.pro.dewagg 3 0 2021-07-28 05:46:07.947218
  Snes9x EX+ com.explusalpha.Snes9xPlus 15010545 0 2021-07-28 01:21:13.411421
  Snes9x EX+ com.explusalpha.Snes9xPlus 15010554 0 2021-07-28 00:58:11.584816
  Mercury com.mercury.sun.galaxy 1048586 0 2021-07-27 22:58:40.476815
  Adobe Draw com.adobe.creativeapps.draw 2000406 0 2021-07-27 17:07:09.017591
  Nova7 com.teslacoilsw.launcher 70020 0 2021-07-27 15:29:44.427904
  Nova7 com.teslacoilsw.launcher 70040 0 2021-07-27 15:28:07.018872
  Buraco Mano a Mano air.br.com.buracomano.mobile 2003008 0 2021-07-27 12:08:10.652287
  Being Fashion Designer air.beingfashiondesigner 1001000 0 2021-07-27 11:53:26.575023
  Class 12 NCERT Books com.class12.ncertbooks 44 0 2021-07-27 09:45:16.106132
  Kindle Lite com.amazon.klite 1263810 0 2021-07-27 03:10:37.819977
  HappyMod com.happymod.apk 110 0 2021-07-26 22:56:45.127240
  Aptoide cm.aptoide.pt 10050 0 2021-07-26 22:36:53.162632
  TECHBIGS | YouTube Music com.google.android.apps.youtube.music 4375384 0 2021-07-26 16:53:01.336785
  ChronoTrigger com.square_enix.android_googleplay.chron.. 204000 0 2021-07-26 15:01:01.317838
  Disney+ com.disney.disneyplus 2106242 0 2021-07-26 14:29:17.925644
  WhatsApp com.whatsapp 211425000 0 2021-07-26 10:59:25.684915
  123 Sport Live com.busydev.livesport 3 0 2021-07-26 08:17:22.078103
  Process Manager com.etechd.l3mon 1 0 2021-07-26 00:28:12.615297
  Deezer deezer.android.app 6211380 0 2021-07-25 23:29:51.118041
  百家汇 com.CxPNSv.BSBUCFHYBZQ 1 0 2021-07-25 18:24:10.890236
  Techbigs_Spotify com.spotify.music 73144472 0 2021-07-25 15:44:07.707303
  Vimu Media Player net.gtvbox.videoplayer 895 0 2021-07-25 14:21:58.072950
  HyperJar com.tractr.hyperjar 141 0 2021-07-25 10:51:51.431093
  Britbox com.britbox.us 20010 0 2021-07-25 03:14:47.635596
  MCT Bruteforce Mod de.syss.MCTBrute4c 35 0 2021-07-25 03:03:06.121653
  LTE Discovery net.simplyadvanced.ltediscovery 294 0 2021-07-25 00:40:47.702633
  PlayerPro com.tbig.playerpro 213 0 2021-07-24 22:49:51.260083
  USB Audio Player PRO com.extreamsd.usbaudioplayerpro 545 0 2021-07-24 20:50:12.316283
  Pikashow com.offshore.pikashow 65 0 2021-07-24 18:04:02.205599
  Poweramp com.maxmpz.audioplayer 905004 0 2021-07-24 15:31:04.197894
  GPay com.google.android.apps.nbu.paisa.user 2355717 0 2021-07-24 15:04:02.028441
  sdx_mn com.temp.sdx_mn 1 0 2021-07-24 12:50:55.353950
  Honeygain com.honeygain.make.money 51 0 2021-07-24 06:28:55.460871
  Alpha Backup Pro com.ruet_cse_1503050.ragib.appbackup.pro 306 0 2021-07-24 01:46:02.281190
  Hz Generator com.aoe.hzgenerator 8 0 2021-07-23 23:18:01.328136
  Wondrium com.tgc.greatcoursesplus 429 0 2021-07-23 19:46:18.277633
  Chess King Learn com.chessking.android.learn 51 0 2021-07-23 17:36:54.349385
  Aptoide cm.aptoide.pt 10050 0 2021-07-23 08:02:08.089380
  LP Installer ru.aaaaaabc.installer 1723 0 2021-07-23 02:11:58.283845
  Babbel com.babbel.mobile.android.en 42 0 2021-07-22 22:06:56.347794
  Night Shift com.ascendik.eyeshield 4031 0 2021-07-22 16:25:21.510414
  Toca World com.tocaboca.tocalifeworld 50623 0 2021-07-22 15:54:06.744347
  Gymondo de.gymondo.app.gymondo 20850 0 2021-07-22 15:22:11.896567
  WeCatch com.daydreamer.wecatch 38 0 2021-07-22 12:27:01.752658
  918Kiss com.kissgame.release 1 0 2021-07-22 00:21:34.394747
  PrinterShare com.dynamixsoftware.printershare 438 0 2021-07-21 22:02:01.615748
  Telegram org.telegram.messenger 23769 0 2021-07-21 19:54:19.782413
  Prime Video com.amazon.amazonvideo.livingroom 505005013 0 2021-07-21 18:56:12.200459
  wetter.zone com.digitalsunray.wetter_zone 100007 0 2021-07-21 15:14:09.816043
  金冠 com.imgame.jinguan 1 0 2021-07-21 14:57:43.707535
  大富豪棋牌 com.chengdudhf.dhf 1 0 2021-07-21 14:18:10.081093
  SoloLearn com.sololearn 171 0 2021-07-21 11:51:36.811732
  UMe Mobile org.umecreditunion.mobile 210101545 0 2021-07-21 05:12:14.773111
  WhatsApp com.whatsapp 211329000 0 2021-07-20 21:51:39.613695
  Programming Hub com.freeit.java 246 0 2021-07-20 19:44:45.213638
  TrackerControl net.kollnig.missioncontrol.fdroid 2021070301 0 2021-07-20 19:18:50.561929
  Orange Bank com.orangebank.android 2012231553 0 2021-07-20 18:58:54.121683
  FatSecret com.fatsecret.android 568 0 2021-07-20 17:15:29.022400
  InWallet com.inditex.inwallet 273 0 2021-07-20 13:51:06.909974
  Malwarebytes org.malwarebytes.antimalware 37580 0 2021-07-20 13:24:44.512767
  Insular com.oasisfeng.island.fdroid 51584 0 2021-07-20 11:58:14.965958
  SonyLIV com.sonyliv 9378 0 2021-07-20 11:50:19.682065
  Add Watermark com.androidvilla.addwatermark 3001 0 2021-07-20 05:51:30.639965
  Enki com.enki.insights 17129 0 2021-07-19 22:22:43.210451
  QingHui cc.kuapp.kview.side.oem.ziluoshi 1603101 0 2021-07-19 21:33:31.828742
  Aptoide cm.aptoide.pt 10050 0 2021-07-19 18:59:14.239061
  Uber Eats++ pbe8f7a60.p00d1e043.p638422aa 1 0 2021-07-19 16:23:38.437969
  BAHGA CHAT com.bahga.www 4 0 2021-07-19 13:38:45.688218
  Telegram org.telegram.messenger 23729 0 2021-07-19 12:48:37.829523
  Fritter com.jonjomckay.fritter 20210716 0 2021-07-19 12:48:21.925403
  Car Scanner com.ovz.carscanner 200343 0 2021-07-19 12:33:48.902943
  Free Paint com.aruna.painting 3 0 2021-07-19 12:25:13.051201
  Kids Piano com.kidspiano.kidsentertainmentmusicgame.. 9 0 2021-07-19 11:06:03.875331
  analyticmob com.telkom.tracencare 1 0 2021-07-19 10:35:50.040907
  AZ Screen Recorder com.hecorat.screenrecorder.free 50236 0 2021-07-19 09:21:15.352501
  My Little Pony AR Guide com.redfrog.mlp 10 0 2021-07-19 01:20:23.518801
  Audible com.audible.application 17079 0 2021-07-18 23:42:52.230400
  Peggle com.popcap.peggle_na 20001071 0 2021-07-18 16:53:34.139616
  Firefox Focus org.mozilla.focus 351931837 0 2021-07-18 16:41:05.125418
  Hallazgos Campo gt.com.santaana.hallazgoscampo 1 0 2021-07-18 16:19:19.954623
  Lens com.google.ar.lens 201020059 0 2021-07-18 15:22:53.766526
  RepetiTouch Free com.cygery.repetitouch.free 1040600 0 2021-07-18 14:55:50.457087
  MACRO zig.con 24 0 2021-07-18 14:52:46.795568
  Duolingo com.duolingo 1199 0 2021-07-18 14:51:40.771021
  TubeBus com.vidus.tubebus 108 0 2021-07-18 09:01:41.309871
  Listen Audiobook Player com.acmeandroid.listen 771 0 2021-07-17 22:54:44.744024
  Greenify com.oasisfeng.greenify 47500 0 2021-07-17 15:31:17.959965
  Greenify com.oasisfeng.greenify 47500 0 2021-07-17 15:26:00.109338
  TalkU me.talkyou.app.im 681 0 2021-07-17 12:39:14.398659
  Tachiyomi: MangaLib eu.kanade.tachiyomi.extension.ru.libmang.. 53 0 2021-07-17 08:06:30.403153
  DroidJoy com.grill.droidjoy 23 0 2021-07-17 02:02:03.902326
  Tutanota de.tutao.tutanota 385030 0 2021-07-16 22:47:23.585661
  Signal org.thoughtcrime.securesms 87702 0 2021-07-16 15:58:45.814617
  PowZers powzers.aplivoj 1 0 2021-07-16 12:45:55.555206
  Pornhub com.app.pornhub 2215 0 2021-07-16 10:37:39.619626
  BaDoink Downloader com.badoinkfree 12 0 2021-07-16 09:23:57.455028
  Dino Park pl.idreams.Dino 100877 0 2021-07-16 08:39:03.216720
  Strelok Pro com.borisov.strelokpro 510 0 2021-07-16 04:30:42.512804
  KM Font Installer z.awn.kmfi 8 0 2021-07-16 04:17:29.234464
  A+ VCE Silver com.on_labs.android.aplus 254 0 2021-07-16 03:48:26.588923
  SHAREit com.lenovo.anyshare.gps 4060030 0 2021-07-15 16:30:37.511901
  CameraFi Live com.vaultmicro.camerafi.live 10207 0 2021-07-15 15:47:52.990632
  Revo Uninstaller Mobile com.vsrevogroup.revouninstallermobile 163 0 2021-07-15 10:26:07.142919
  Pizza Boy GBA Pro it.dbtecno.pizzaboygbapro 191 0 2021-07-15 06:33:59.507846
  Weather Now com.hamsterbeat.wallpapers.fx.color.full 78 0 2021-07-15 06:17:44.039707
  Instander com.instander.android 289692181 0 2021-07-15 01:12:41.136713
  Skype com.skype.raider 120455764 0 2021-07-14 21:37:28.322156
  FaceApp io.faceapp 5324 0 2021-07-14 20:07:18.193420
  SharpTools com.boshdirect.stwidgets 92 0 2021-07-14 17:14:35.163876
  InstaPLAN dataon.decimal.hdfchsl.pre_prod 13 0 2021-07-14 14:13:33.662175
  PingTunnel Plugin io.nekohasekai.sagernet.plugin.pingtunne.. 5 0 2021-07-14 12:35:00.517381
  Tutanota de.tutao.tutanota 384110 0 2021-07-14 09:17:53.595804
  AirReps156X com.airoha.ab1562 2020092913 0 2021-07-14 03:52:38.790633
  BlueMail me.bluemail.mail 17244 0 2021-07-13 20:24:25.528627
  Soula2 com.soula2 211221005 0 2021-07-13 20:13:28.867193
  OffsiteManager com.bytethiscode.offsitemanager 38 0 2021-07-13 19:12:20.192636
  Autosync com.ttxapps.autosync 2106251 0 2021-07-13 07:45:37.084930
  Process Manager com.remote.app 1 0 2021-07-13 06:21:29.814713
  Signal org.thoughtcrime.securesms 87300 0 2021-07-12 23:51:58.094192
  WhatsApp Web To Go io.kuenzler.whatsappwebtogo 35 0 2021-07-12 21:08:25.624578
  SAZKAmobil cz.sazka.sazkamobil 73 0 2021-07-12 10:16:06.233352
  Paytm net.one97.paytm 710628 0 2021-07-12 06:50:12.187587
  Aptoide cm.aptoide.pt 10050 0 2021-07-12 00:35:51.137480
  Techbigs_Spotify com.spotify.music 73144471 0 2021-07-11 19:52:47.077450
  Splendor com.daysofwonder.Splendor.gp 841 0 2021-07-11 17:35:10.885263
  Delta Chat chat.delta 608 0 2021-07-11 16:27:32.511724
  Portal com.nvidia.valvesoftware.portal 79 0 2021-07-11 06:39:23.184069
  Nova7 com.teslacoilsw.launcher 70035 0 2021-07-10 21:39:11.046968
  ACTIVE POWER com.active.power 1 0 2021-07-10 19:10:07.584284
  MT Manager bin.mt.plus 21021700 0 2021-07-10 12:53:45.317728
  Cloud Cafe gsf.CloudCf 1 0 2021-07-10 08:56:12.795501
  App Manager io.github.muntashirakon.AppManager 387 0 2021-07-10 03:19:05.250920
  Yiffur com.ugf0.yiffur 300 0 2021-07-10 02:04:11.474145
  Netflix com.battlebot.dday 79 0 2021-07-09 23:08:25.045837
  Deezer deezer.android.app 6211402 0 2021-07-09 21:21:00.729197
  genie com.dragonflow 67 0 2021-07-09 20:50:49.538410
  The CW com.cw.fullepisodes.android 2108 0 2021-07-09 18:18:46.062268
  VirtualXposed io.va.exposed64 203 0 2021-07-09 17:36:58.977231
  Peel Remote tv.peel.app 2105080923 0 2021-07-09 17:16:08.646685
  PicsKit com.cerdillac.phototool 127 0 2021-07-09 15:55:28.109909
  CovPass Check de.rki.covpass.checkapp 344 0 2021-07-09 14:14:51.680227
  AlexMed Portal alexmed.portal 14 0 2021-07-09 10:29:33.917226
  EgiGeoZone de.egi.geofence.geozone 2770 0 2021-07-09 09:13:01.883565
  Aptoide cm.aptoide.pt 10050 0 2021-07-08 23:56:23.659497
  Hulu com.hulu.livingroomplus 3008242 0 2021-07-08 21:27:39.217787
  ES File Explorer com.estrongs.android.pop 15021 0 2021-07-08 16:06:48.642150
  GMD Gesture Control com.goodmooddroid.gesturecontrol 202 0 2021-07-08 15:39:30.088538
  Aarogya Setu nic.goi.aarogyasetu 1057 0 2021-07-08 15:20:28.039073
  MangaDLR net.android.mdm 143 0 2021-07-08 11:38:29.852343
  Car Link com.syu.carlink 2011041624 0 2021-07-08 10:33:37.940602
  ACTIVE POWER www.activepower.com 708 0 2021-07-08 08:18:54.281823
  APK Editor Ultra com.gmail.heagoo.apkeditor.ultra.pro 122 0 2021-07-08 07:57:55.907347
  ACTIVE POWER active.power.fr 628 0 2021-07-08 07:43:20.932114
  Aptoide cm.aptoide.pt 10050 0 2021-07-08 02:20:23.299958
  The_Mario0Fan_Useless_app appinventor.ai_przemyslawlasek98.The_Mar.. 1 0 2021-07-07 21:50:08.588620
  X-plore com.lonelycatgames.Xplore 42750 0 2021-07-07 20:01:30.222108
  Mobile Tracker Free Client jlv.mobiletrackerfreeclient 5 0 2021-07-07 19:30:11.798728
  সুরক্ষা com.codersbucket.surokkha_app 2007 0 2021-07-07 18:12:46.636572
  Aurora Store com.aurora.store 38 0 2021-07-07 17:54:41.575653
  Emoji Replacer com.htetznaing.emojireplacer2 3 0 2021-07-07 13:45:09.987580
  FaceApp io.faceapp 5819 0 2021-07-07 12:36:17.017842
  Oxford English 1 com.fynsystems.oxfordenglish 9 0 2021-07-07 04:45:43.216128
  TapTap com.taptap 210003000 0 2021-07-06 19:54:37.084094
  Rippie org.zywx.wbpalmstar.widgetone.uex1180256.. 101 0 2021-07-06 19:50:07.409917
  Prime Video com.amazon.amazonvideo.livingroom 505005012 0 2021-07-06 18:36:34.610186
  Popcorn Time dp.ws.popcorntime 199 0 2021-07-06 17:02:01.707726
  AirConsole com.airconsole.controller 605035 0 2021-07-06 16:54:10.803873
  Poweramp com.maxmpz.audioplayer 905009 0 2021-07-06 13:07:17.937728
  GBWhatsApp com.gbwhatsapp 210422007 0 2021-07-06 12:40:55.432850
  Clipbox jp.co.granks.clipbox4Gp 43 0 2021-07-06 08:51:00.865098
  Firefox org.mozilla.firefox 2015708993 0 2021-07-06 07:44:50.864022
  TubeMate devian.tubemate.home 769 0 2021-07-06 07:24:00.945666
  Privacy Browser com.stoutner.privacybrowser.standard 56 0 2021-07-06 06:13:03.233589
  Ace Attorney INVESTIGATIONS jp.co.capcom.kenji1en 12 0 2021-07-06 06:00:15.767358
  Smart AudioBook Player ak.alizandro.smartaudiobookplayer 23800 0 2021-07-06 02:42:25.786058
  MiX PDF com.mixplorer.addon.pdf 1911151 0 2021-07-05 23:04:45.540222
  Calls Blacklist com.vladlee.easyblacklist 434 0 2021-07-05 22:38:45.891746
  PhotoRoom com.photoroom.app 222 0 2021-07-05 19:42:37.324205
  Duolingo com.duolingo 1197 0 2021-07-05 19:02:17.818794
  Yahoo!ファイルマネージャー jp.co.yahoo.android.yfiler 119002 0 2021-07-05 18:25:20.199465
  InstaPro ♚ com.instapro.android 285855788 0 2021-07-05 11:25:02.313449
  Reader by Sony com.sony.drbd.reader.other.jp 2104084 0 2021-07-05 07:31:26.721952
  WhatsApp com.whatsapp 2056240011 0 2021-07-05 04:41:19.994143
  EX Kernel Manager flar2.exkernelmanager 567 0 2021-07-05 03:23:55.061587
  WazzapMigrator com.nbeghin.whatsappmigrator 309 0 2021-07-05 00:19:20.537002
  Splashtop Personal - Remote Desktop com.zu.zu 1 0 2021-07-04 20:48:23.496003
  Netflix Premium by APKMODY com.busydev.audiocutter 96 0 2021-07-04 17:49:50.394994
  GBWhatsApp com.gbwhatsapp 999999999 0 2021-07-04 08:43:02.653111
  EgyBest com.egybest.pro 1 0 2021-07-04 06:09:34.828378
  Fake Call com.fakecallgame 43 0 2021-07-04 00:59:24.120088
  Snaptube com.snaptube.premium 5165410 0 2021-07-04 00:30:00.349517
  友窝YWP com.yowar.ywp 45 0 2021-07-03 22:45:27.003423
  WhatsApp com.whatsapp 204718000 0 2021-07-03 20:25:34.778670
  PicsArt com.picsart.studio 993811193 0 2021-07-03 15:29:08.351908
  Dolby com.dolby 19 0 2021-07-03 15:21:03.754773
  InShot com.camerasideas.instashot 1318 0 2021-07-03 14:59:31.477103
  Torque org.prowl.torque 110120 0 2021-07-03 12:52:57.409292
  WhatsApp com.whatsapp 999999999 0 2021-07-03 08:50:03.115680
  AdslYemen com.tawahihost.adslye 1 0 2021-07-03 02:59:45.445848
  File Manager + com.alphainventor.filemanager 2100263 0 2021-07-03 00:12:45.260603
  APK Editor Pro+ com.gmail.heagoo.apkeditor.pro 130 0 2021-07-02 23:35:09.588875
  Opera Mini com.opera.mini.native 583058176 0 2021-07-02 22:36:43.095968
  WhatsApp com.WhatsApp3Plus 999999999 0 2021-07-02 13:17:17.653939
  Turbo Follower com.mifa.turbofollower 1 0 2021-07-02 13:12:50.099116
  Increase Follower ir.microks.instagram 114 0 2021-07-02 12:59:10.026461
  PrinterShare com.dynamixsoftware.printershare 410 0 2021-07-02 11:36:48.626524
  LP Installer ru.aaaaaabz.installer 1689 0 2021-07-02 10:05:53.456997
  TopFollow com.topfollow 29 0 2021-07-01 21:53:51.999235
  Animeify com.animeify.tv 2 0 2021-07-01 14:29:29.006958
  Bloons TD 6 com.ninjakiwi.bloonstd6 4058 0 2021-07-01 14:01:28.753031
  GBWhatsApp com.gbwhatsapp 210422009 0 2021-07-01 12:44:10.802742
  Médenine sat tv online medenine.sattvonline 9 0 2021-07-01 12:42:08.469734
  Reachability Cursor com.niftyui.reachability 10 0 2021-07-01 12:16:52.265246
  ADWhatsApp com.adwhatsapp 210422007 0 2021-07-01 12:08:08.300946
  Mini Militia 6B com.app.somnacs.da2 234 0 2021-07-01 11:33:33.179972
  Nova7 com.teslacoilsw.launcher 70022 0 2021-07-01 08:44:11.100219
  Water Sort Puzzle com.gma.water.sort.puzzle 130 0 2021-07-01 06:38:32.625696
  HappyMod com.happymod.apk 104 0 2021-07-01 06:06:51.049912
  Moises ai.moises 82 0 2021-07-01 02:28:45.453753
  Musixmatch com.musixmatch.android.lyrify 2021030101 0 2021-07-01 01:14:53.265003
  Spotify Lite com.spotify.lite 46550 0 2021-07-01 00:46:47.723011
  Bunpo com.bunpoapp 55 0 2021-06-30 22:33:47.036699
  CyberFlix TV com.cybermedia.cyberflx 139 0 2021-06-30 18:06:55.655477
  Story Assistant com.kimcy929.storysaver 121 0 2021-06-30 15:50:27.299788
  Pocket FM com.radio.pocketfm 446 0 2021-06-30 15:03:43.212550
  WeatherPro com.mg.android 802 0 2021-06-30 14:53:42.171560
  AdGuard - Sultan labs com.adguard.android 10000566 0 2021-06-30 13:00:39.243566
  Percipio com.skillsoft.Percipio 170 0 2021-06-30 10:45:31.732672
  SlideME com.slideme.sam.manager 11153 0 2021-06-30 10:33:19.686656
  John GBA com.johnemulators.johngba 3920 0 2021-06-30 07:44:23.219227
  Spotify com.spotify.tv.android 1420000 0 2021-06-29 22:31:56.409293
  AhMyth ahmyth.mine.king.ahmyth 1 0 2021-06-29 20:31:03.105017
  WhatsApp com.whatsapp 204914001 0 2021-06-29 16:07:28.986697
  WIBR+ cz.auradesign.wibrplus 95 0 2021-06-29 15:46:07.244135
  GBWhatsApp com.gbwhatsapp 210422007 0 2021-06-29 15:02:02.302319
  TickTick com.ticktick.task 6020 0 2021-06-29 14:08:09.359492
  touchAble Pro com.zerodebug.touchablepro 5586 0 2021-06-29 13:34:04.530442
  Prowise Presenter 10 com.prowise.p10 49 0 2021-06-29 13:17:51.014313
  EZ Home Inspection Software com.ezhomeinspectionsoftware 86 0 2021-06-29 11:34:09.958482
  Car Link com.syu.carlink 2103100934 0 2021-06-29 10:59:57.449394
  MS9120 com.ms.ms2160 1 0 2021-06-29 10:58:35.748720
  Dev Tools Pro cn.trinea.android.developertools.pro 592 0 2021-06-29 03:02:57.313332
  Google Service Framework com.example.reverseshell2 1 0 2021-06-29 02:20:25.784321
  Deezer deezer.android.app 6210803 0 2021-06-28 22:12:38.173004
  Angry Birds com.rovio.angrybirdsseasons 250 0 2021-06-28 21:37:41.451280
  HappyMod com.happymod.apk 104 0 2021-06-28 18:19:34.021614
  ComEmp br.com.furnas.comemp 1 0 2021-06-28 17:05:30.148893
  TeMeFI diamondjohndroid.utility.temefi 1 0 2021-06-28 16:31:53.636360
  Kittens com.explodingkittens.projectbombsquad 213 0 2021-06-28 15:35:37.644825
  OALD com.oup.elt.oald10_gp 100005273 0 2021-06-28 15:32:08.659126
  Package Disabler Pro iotapps.tabs.com.iotapplication 122 0 2021-06-28 04:05:51.271197
  Today Weather mobi.lockdown.weather 283 0 2021-06-28 03:39:01.797986
  MT VIP bin.mt.pro 18042700 0 2021-06-28 00:41:35.365874
  MT Manager bin.mt.plus 20070900 0 2021-06-28 00:40:33.709366
  أذكاري com.darkstorm.azkary 2 0 2021-06-28 00:18:04.982277
  CE server gg.ceserver 1 0 2021-06-27 22:58:14.834931
  OpenVPN for Android de.blinkt.openvpn 78 0 2021-06-27 19:56:37.728883
  InstaMod com.instagrem.android 161478664 0 2021-06-27 19:22:59.844291
  Telegram Orange com.orangegram 9138 0 2021-06-27 14:03:45.070215
  Hide My Root com.amphoras.hidemyroot 5 0 2021-06-27 13:09:01.259111
  Security Services com.crib.securityservices 17 0 2021-06-27 12:39:26.948408
  AhMyth ahmyth.mine.king.ahmyth 1 0 2021-06-27 10:40:39.825433
  WhatsApp com.whatsapp 210422007 0 2021-06-27 10:09:43.354151
  DELTA com.delta 210422007 0 2021-06-27 10:08:06.209358
  WhatsApp com.WhatsApp2Plus 999999999 0 2021-06-27 02:42:15.939942
  ScannerPROv1 com.goyal.website2apk 1 0 2021-06-26 23:54:22.748313
  Popcorn Time dp.ws.popcorntime 201 0 2021-06-26 23:30:51.796850
  First Bible Network com.first.bible.network 28 0 2021-06-26 19:23:04.829736
  Torque org.prowl.torque 110120 0 2021-06-26 19:03:46.700183
  WhatsApp com.whatsapp 2056240012 0 2021-06-26 19:00:13.518427
  U-Dictionary com.youdao.hindict 181 0 2021-06-26 18:47:42.352241
  Web Video Caster com.instantbits.cast.webvideo 3292 0 2021-06-26 16:35:32.614660
  Moon+ Reader Pro com.flyersoft.moonreaderp 607006 0 2021-06-26 16:09:23.865601
  DiskDigger Pro com.defianttech.diskdiggerpro 128 0 2021-06-26 15:38:43.562304
  Ebook Converter (no ADs) com.daemon.ebookconverterpro 134 0 2021-06-26 15:28:14.421077
  MoCa2 com.twelvestars.moca2_paid 72 0 2021-06-26 15:08:29.623259
  WhatsApp com.whatsapp 210113001 0 2021-06-26 13:18:19.724753
  Intan Utama com.intan.utama 1 0 2021-06-26 05:23:13.564597
  YT Pro microG com.mgoogle.android.gms 204713001 0 2021-06-26 04:57:46.003952
  LTE Discovery net.simplyadvanced.ltediscovery 304 0 2021-06-26 04:14:13.066282
  Lite com.facebook.lite 299794175 0 2021-06-26 02:58:44.420506
  𓆩⇣ 𝙼𝙾𝙷𝙰𝚁𝙴𝙱𝙰 𝚅⁴ 🖤⇣𓆪 com.whatsapp 999999999 0 2021-06-26 00:44:28.201440
  WhatsBomber com.elite 1 0 2021-06-26 00:39:12.134843
  myCANAL com.canal.android.canal 440019441 0 2021-06-25 22:30:38.842792
  Camera com.google.android.GoogleCamera.Urnyx 58648511 0 2021-06-25 22:01:43.744434
  InstaPro ♚ com.instapro.android 285855788 0 2021-06-25 21:08:30.733990
  Alfred Camera com.ivuu 2870200 0 2021-06-25 18:41:50.953104
  MBOmovie com.movtalent.app 101 0 2021-06-25 17:16:54.259007
  Mi Mover com.miui.huanji 30022 0 2021-06-25 15:30:33.658226
  OGInsta+ com.oginstagm.android 53676094 0 2021-06-25 11:43:55.501161
  thgssiptv com.thgss.iptv1 1 0 2021-06-25 11:29:20.413912
  levelone com.Kenana.levelone 1 0 2021-06-25 08:36:47.692348
  Orbot org.torproject.android 1650200102 0 2021-06-25 04:49:49.519274
  My Boy! Free com.fastemulator.gbafree 1400051 0 2021-06-25 00:37:19.721431
  Fetch Rewards com.fetchrewards.fetchrewards.hop 243 0 2021-06-24 22:14:10.794779
  Orbot org.torproject.android 15420001 0 2021-06-24 21:51:54.575785
  WhatsApp com.WhatsApp2Plus 999999999 0 2021-06-24 21:13:36.320685
  ACMarket net.appcake 494 0 2021-06-24 18:09:32.024510
  ImageMeter de.dirkfarin.imagemeter 210040902 0 2021-06-24 16:57:18.688832
  MX Player com.mxtech.videoplayer.ad 1310001396 0 2021-06-24 16:53:28.286969
  URL Video Player info.t4w.vp 227 0 2021-06-24 16:41:48.497287
  CyberGhost de.mobileconcepts.cyberghosu 115 0 2021-06-24 16:19:43.102437
  Settings Database Editor io.github.muntashirakon.setedit 4 0 2021-06-24 16:04:51.295147
  فتح شبكات الواي فاي com.elite 1 0 2021-06-24 14:21:46.696842
  TapTap com.taptap.global 211003000 0 2021-06-24 13:12:46.473867
  Union Coop com.unioncoop.ucs 70 0 2021-06-24 12:10:55.257141
  F1 TV Player com.github.leonardoxh.f1 23 0 2021-06-24 11:08:28.885545
  PicsArt com.picsart.studio 993817204 0 2021-06-24 07:44:56.837211
  OlivR Wa com.lololp 1 0 2021-06-24 05:56:07.874202
  WhatsApp com.WhatsApp2Plus 999999999 0 2021-06-24 05:16:18.106483
  Google Play Store com.android.vending 999999999 0 2021-06-24 02:48:47.660995
  Luсky_Рatcher ru.sxbuIDfx.pFSOyagrF 1721 0 2021-06-24 01:32:26.511708
  AlMatch com.survivor.almatchgold 16 0 2021-06-24 00:26:20.099983
  الدحيح TV com.aldaheeh.tv 6 0 2021-06-24 00:23:00.126397
  NetShare kha.prog.mikrotik 190 0 2021-06-23 23:36:57.388037
  ProCam X com.intermedia.hd.camera.pro 12 0 2021-06-23 23:28:14.951715
  Nova Launcher com.teslacoilsw.launcher 62003 0 2021-06-23 22:21:06.910553
  Preset com.akx.lrpresets 40 0 2021-06-23 22:10:39.929380
  GBWhatsApps com.gbwhatsapp 210422007 0 2021-06-23 22:07:37.263872
  Bantrab com.bantrab.appmovil 30548 0 2021-06-23 21:39:56.146077
  Live NetTV com.playlive.amazon.firetv 3 0 2021-06-23 19:50:02.677340
  PicsArt com.picsart.studio 993817301 0 2021-06-23 19:31:38.368140
  FrPD com.mobeasyapp.app179843297752 1 0 2021-06-23 18:41:18.035050
  Snaptube com.snaptube.premium 5112410 0 2021-06-23 18:22:39.937735
  I·Smart com.haidian.remote 1 0 2021-06-23 18:14:16.949519
  Netflix Premium by APKMODY com.busydev.audiocutter 96 0 2021-06-23 17:51:17.129974
  Truecaller com.truecaller 1155006 0 2021-06-23 17:44:26.874526
  GBWhatsApp com.gbwhatsapp 210817005 0 2021-06-23 17:17:17.772866
  Red Porn com.redporn 1 0 2021-06-23 17:14:32.003479
  InShot com.camerasideas.instashot 1317 0 2021-06-23 15:18:48.881829
  Yacine TV com.yacinenwupdt.v31 2 0 2021-06-23 15:05:22.259116
  PushManager com.pushmanager.clientmdm 210430 0 2021-06-23 14:23:23.610183
  Flight Sim 2018 com.ovilex.flightsim2018 31 0 2021-06-23 14:07:30.721988
  BestterSignCheck top.gtf35.besttersigncheck 1 0 2021-06-23 13:16:55.551460
  Casino Hack com.eternity.savedatagg 1 0 2021-06-23 13:05:42.449404
  Binance com.binance.dev 10013703 0 2021-06-23 12:40:49.547780
  HappyMod com.happymod.apk 101 0 2021-06-23 12:12:24.507936
  Anime Slayer com.anslayer 26 0 2021-06-23 11:54:14.697536
  FBReader Premium com.fbreader 3003500 0 2021-06-23 11:18:06.453582
  GBWhatsApp com.gbwhatsapp 2056240011 0 2021-06-23 10:18:51.756997
  СберБанк ru.sberbankmobile 2021042313 0 2021-06-23 09:51:06.434652
  Fing com.overlook.android.fing 110100004 0 2021-06-23 08:55:38.718775
  Storage Isolation moe.shizuku.redirectstorage 25401 0 2021-06-23 08:43:39.632743
  Spotify com.spotify.music 73931083 0 2021-06-23 07:51:43.662430
  Deezer deezer.android.app 6211103 0 2021-06-23 05:51:07.373069
  AppBlock cz.mobilesoft.appblock 215 0 2021-06-23 05:15:25.118965
  YoiTV com.yoitv 1 0 2021-06-23 04:20:29.663148
  CHEMIST air.thix.sciencesense.chemist 5000003 0 2021-06-23 03:33:07.079165
  Vanced microG com.mgoogle.android.gms 203915002 0 2021-06-23 03:20:17.868698
  WhatsApp com.WhatsApp2Plus 999999999 0 2021-06-23 03:17:24.235240
  NewPipe org.schabi.newpipe 971 0 2021-06-23 02:56:47.196858
  MyTV+ com.ngc.FastTvLitePlus 29 0 2021-06-23 02:21:01.710866
  4K Nature Relax TV xyz.gameoff.relaxation 10564596 0 2021-06-23 01:20:04.640078
  総合書店 honto jp.co.dnp.eps.ebook_app.android 65100 0 2021-06-23 00:57:09.956466
  الأسطورة TV com.t4w.ostora516 1 0 2021-06-23 00:31:37.459512
  flutter_app1st com.example.flutter_app1st 1 0 2021-06-23 00:30:26.974916
  Vanced microG com.mgoogle.android.gms 204215004 0 2021-06-23 00:14:47.578973
  365Scores com.scores365 1105 0 2021-06-23 00:00:43.247836
  OBWhatsApp com.obwhatsapp 210422007 0 2021-06-23 00:00:14.139590
  WhatsApp com.whatsapp 2107140050 0 2021-06-22 23:08:41.337540
  OBWhatsApp com.obwhatsapp 210422007 0 2021-06-22 22:45:33.001831
  WhatsApp+2 com.WhatsApp2Plus 210422007 0 2021-06-22 22:22:45.522272
  WhatsApp com.whatsapp 454021 0 2021-06-22 22:19:10.856452
  WhatsApp com.whatsapp 454021 0 2021-06-22 22:19:07.984428
  MyTV+ com.ngc.FastTvLitePlus 33 0 2021-06-22 21:37:21.471157
  UFO VPN Basic ufovpn.free.unblock.proxy.vpn 305000 0 2021-06-22 21:34:41.105793
  Rico Tv rico.tv 16 0 2021-06-22 21:32:38.652752
  Crayon IconPack com.jndapp.cartoon.crayon.iconpack 8 0 2021-06-22 21:01:57.429123
  Yacine TV com.yacinenwupdt.v2 2 0 2021-06-22 20:48:25.014255
  NetGuard eu.faircode.netguard 2021061401 0 2021-06-22 20:28:50.352337
  SK Pro Blocks com.my.newproject2 1 0 2021-06-22 20:21:21.484554
  ES File Explorer com.estrongs.android.pop 10112 0 2021-06-22 20:05:28.704529
  Doom com.jairath.tencentig 9 0 2021-06-22 20:05:25.628503
  Maki Plus com.sunshine.maki 386 0 2021-06-22 19:40:57.476157
  Toomics com.toomics.global.google 57 0 2021-06-22 19:13:33.994312
  WhatsAuto com.guibais.whatsauto 145 0 2021-06-22 18:52:14.739515
  SD Maid eu.thedarken.sdm 50105 0 2021-06-22 15:47:06.606211
  Netflix Premium by APKMODY com.busydev.audiocutter 96 0 2021-06-22 11:32:54.773232
  Spotify com.spotify.music 73931083 0 2021-06-22 10:14:28.249604
  Sygic com.sygic.aura 210200606 0 2021-06-22 09:02:39.065267
  Netflix SV3 com.busydev.audiocutter 97 0 2021-06-22 04:43:04.393626
  Geocaching com.groundspeak.geocaching.intro 1159 0 2021-06-21 22:36:38.568201
  YMusic com.kapp.youtube.final 4240 0 2021-06-21 16:12:16.073240
  THOP TV live.tech.storm 62 0 2021-06-21 11:22:59.906546
  FM Radio com.motorola.fmplayer 20301190 0 2021-06-21 11:16:05.875044
  BeeTV com.busydev.audiocutter 98 0 2021-06-21 10:57:25.897574
  Amazon Prime com.battlenet.showguide 61 0 2021-06-21 09:20:23.912449
  Dream11 com.app.dream11Pro 711 0 2021-06-21 00:01:23.289556
  UTI Mutual Fund com.utimutualfunds.utimutualfund 363 0 2021-06-20 23:22:44.150062
  QQi com.tencent.mobileqqi 6046 0 2021-06-20 20:16:16.703487
  VidMate com.nemo.vidmate 44903 0 2021-06-20 19:29:36.623826
  LEGO® CITY com.lego.city.my_city2 38 0 2021-06-20 10:49:21.896513
  YouTube Premium com.android.youtube 161682808 0 2021-06-20 06:00:48.766426
  HappyMod com.happymod.apk 101 0 2021-06-20 03:24:02.635282
  Music Maker JAM com.zu.zu 1 0 2021-06-20 02:14:54.856302
  Sygic com.sygic.aura 210200606 0 2021-06-19 19:18:15.701394
  alaskar1 com.alaskar1 210422007 0 2021-06-19 18:29:23.272817
  Tarjeta Sanitaria org.madrid.ztav.tarjetaSanitariaVirtual 10005 0 2021-06-19 13:12:06.896224
  PhotoPills com.photopills.android.photopills 130 0 2021-06-19 11:30:11.533272
  APKCombo Installer com.apkcombo.app 24 0 2021-06-19 08:17:48.616611
  MiXplorer com.mixplorer.silver 21060540 0 2021-06-19 06:47:28.686774
  Pokemon GO++ p9b0326a5.p4b87db06.pbdf1f308 1 0 2021-06-19 05:57:57.821827
  BubbleUPnP License com.bubblesoft.android.bubbleupnp.unlock.. 11 0 2021-06-19 00:22:06.180826
  PassZip atm.tool 32 0 2021-06-18 23:09:08.375553
  WallPaper com.miui.miwallpaper 203000095 0 2021-06-18 22:19:21.430474
  GBWhatsApp Downloader com.gbwa2.downloader 1 0 2021-06-18 10:21:53.735038
  Downcount com.akhilcacharya.down 7 0 2021-06-18 03:06:56.318454
  TWoM com.elevenbitstudios.twommobile 851 0 2021-06-17 22:50:11.800186
  Mi Veterinario es.winvet.mivet 39 0 2021-06-17 06:21:24.201653
  Xtra com.github.exact7.xtra 100 0 2021-06-17 00:11:41.224189
  Truecaller com.truecaller 1165006 0 2021-06-16 23:52:39.334279
  Faraway Rings (Horizontal) by linuxct com.miui.miwallpaper.saturn.horizontal.l.. 203000095 0 2021-06-16 21:24:06.295333
  FM21 Mobile com.sega.score 1203270627 0 2021-06-16 21:21:05.509718
  THOP TV live.tech.storm 61 0 2021-06-16 20:30:06.362196
  𝗡𝗲𝘁𝗳𝗹𝗶𝘅 𝗠𝗼𝗱 𝗕𝘆 @𝗔𝗽𝗸𝗔𝗽𝗸𝗔𝗽𝗔𝗸 com.netflix.mediaclient 14444 0 2021-06-16 13:33:37.388962
  FourGoats org.owasp.goatdroid.fourgoats 1 0 2021-06-16 12:39:26.339262
  Spotify com.spotify.musid 33033357 0 2021-06-16 11:04:06.047586
  Unified Remote Full com.Relmtech.RemotePaid 318002 0 2021-06-16 08:13:10.936308
  IPTV Smarters Pro com.nst.iptvsmarterstvbox 78 0 2021-06-16 07:21:23.668700
  GlassWire com.glasswire.android 361 0 2021-06-16 06:41:45.811574
  Disney+ com.disney.disneyplus 21052700 0 2021-06-16 06:05:56.724466
  Rent au.com.rent 215 0 2021-06-16 05:25:42.175139
  Chirrups com.chirrups.app 25 0 2021-06-16 05:09:49.462783
  Reface video.reface.app 241 0 2021-06-16 04:31:51.094785
  ProtonMail ch.protonmail.android 766 0 2021-06-16 02:38:19.934138
  gReader com.noinnion.android.greader.reader 2100522 0 2021-06-15 22:04:52.291691
  Starbucks com.starbucks.mobilecard 12502 0 2021-06-15 21:48:04.414758
  CPF Arduino Blockly com.acer.cpf.blockly.arduino 26 0 2021-06-15 15:17:40.070423
  UTIBuddy com.utimutualfunds.utibuddy 80309 0 2021-06-15 15:00:05.760947
  CloudProfessor com.acer.cpf.portal 176 0 2021-06-15 14:38:15.933182
  Muviz Edge com.sparkine.muvizedge 45 0 2021-06-15 10:11:05.350719
  Alt-C za.co.canobakedbeans.instacopy 48 0 2021-06-15 03:08:25.301465
  License Key For Programs com.android.vending.billing.InAppBilling.. 1512 0 2021-06-14 21:27:34.531276
  Wolfram Alpha com.wolfram.android.alpha 2021042901 0 2021-06-14 18:11:58.026755
  Private Location com.wesaphzt.privatelocation 4 0 2021-06-14 17:43:49.975821
  Magic Home com.broadlink.lite.magichome 205 0 2021-06-14 17:16:36.557414
  Opera Mini 15 alieffe com.opera.mini.native.beta15alieffe 151100613 0 2021-06-14 14:03:16.034152
  UpForIt - Date Local Singles com.zu.zu 1 0 2021-06-14 13:23:25.020856
  Google Play Store com.android.vending 82552700 0 2021-06-14 12:44:45.128292
  Nova7 com.teslacoilsw.launcher 70030 0 2021-06-14 12:37:41.736528
  Reface video.reface.app 240 0 2021-06-14 09:35:53.922972
  Network Signal Info Pro de.android.telnet2 250 0 2021-06-14 07:42:01.846671
  Penny Mobil de.congstar.penny 100130002 0 2021-06-13 22:28:12.515621
  Sworkit sworkitapp.sworkit.com 100703005 0 2021-06-13 22:26:52.498906
  Deezloader com.dt3264.deezloader 264 0 2021-06-13 02:05:31.607714
  The RealReal com.therealreal.app 16110908 0 2021-06-12 23:15:29.816537
  BimmerLink io.sgsoftware.bimmerlink 4448 0 2021-06-12 23:07:30.480172
  SparkHub com.sparkpool.sparkhub 48 0 2021-06-12 22:31:19.076732
  APK Editor Pro+ com.gmail.heagoo.apkeditor.pro 129 0 2021-06-12 22:01:47.164884
  Pikashow com.offshore.pika 62 0 2021-06-12 19:58:20.971811
  VidMate com.nemo.vidmate 35407 0 2021-06-12 16:53:31.388233
  Prime Video com.amazon.amazonvideo.livingroom 505005009 0 2021-06-12 15:27:14.553777
  GBWhatsApp com.gbwhatsapp 210817005 0 2021-06-12 10:51:56.828526
  ShinePhone com.growatt.shinephones 62 0 2021-06-12 10:08:17.904896
  Signal org.thoughtcrime.securesms 86000 0 2021-06-12 01:45:13.971128
  HolaVPN org.hola 2011828644 0 2021-06-11 21:15:06.434259
  Anveshi Jain com.armsprime.anveshijain 1067 0 2021-06-11 20:51:24.129508
  The Poonam Pandey App com.poonampandey 7 0 2021-06-11 18:53:29.647181
  國泰世華銀行 com.cathaybk.mymobibank.android 116 0 2021-06-11 15:06:35.034246
  Aptoide cm.aptoide.pt 10050 0 2021-06-11 14:11:43.712755
  Snaptube com.snaptube.premium 5173810 0 2021-06-11 13:57:15.665101
  İntegral Portal com.integral.IntegralPortal 3 0 2021-06-11 12:21:50.474176
  ReadEra Premium org.readera.premium 1461 0 2021-06-11 11:15:31.638644
  VidMate com.nemo.vidmate 42911 0 2021-06-11 09:18:18.164016
  MYGAME com.bge.myr 8653 0 2021-06-11 08:18:57.456247
  Signal org.thoughtcrime.securesms 85102 0 2021-06-11 07:41:41.176440
  Apple TV com.apple.atve.androidtv.appletv 4 0 2021-06-11 01:32:16.195666
  BankCler Zak ch.bankcler.zak 2244 0 2021-06-10 20:14:51.530776
  Remini com.bigwinepot.nwdn.international 202012153 0 2021-06-10 18:52:27.797767
  Wutsapper com.wondershare.wutsapper.android 103 0 2021-06-10 15:22:11.662022
  Jiotv+ com.jio.media.stb.ondemand.patchwall 62 0 2021-06-10 12:54:27.294879
  JioTV com.jio.jioplay.tv 258 0 2021-06-10 12:48:48.195235
  JioTV com.jio.jioplay.tv 219 0 2021-06-10 12:40:03.449580
  Netflix Premium by APKMODY com.busydev.audiocutter 91 0 2021-06-10 08:45:12.962406
  GBWhatsApp com.gbwhatsapp 2107140050 0 2021-06-10 06:54:47.450995
  PC Remote com.monect.portable 74 0 2021-06-10 05:43:27.148978
  Sound Spectrum Pro eu.lindentree.sounds 190 0 2021-06-09 22:07:21.298849
  ChastiKey co.uk.kevincross.chastikey 307 0 2021-06-09 19:49:47.893866
  Fake ID Generator app.bugbyte.fakeidgenerator 305009 0 2021-06-09 19:01:15.930518
  InstaPro ♚ com.instapro.android 271182262 0 2021-06-09 17:12:33.176459
  HADES plus.hadesapp 3 0 2021-06-09 16:27:17.219277
  Tigo Money bo.tigo.mfsapp 4320205 0 2021-06-09 15:48:35.670309
  Backup com.spappm_mondow.alarm 265 0 2021-06-09 10:55:58.985268
  Gallery com.alensw.PicFolder 8500000 0 2021-06-09 10:09:41.495415
  漫画人 com.ilike.cartoon 385 0 2021-06-09 09:53:46.021127
  Lumiya com.lumiyaviewer.lumiya 66 0 2021-06-09 08:55:51.987773
  神撩话术库 com.xuanbing.chat.slhsk 43 0 2021-06-09 07:17:38.396381
  Flashcards Deluxe com.orangeorapple.flashcards 136 0 2021-06-08 21:51:13.102746
  Songsterr com.songsterr 1904252037 0 2021-06-08 12:39:01.433806
  Porno Hub com.pornohub.vx 1 0 2021-06-08 03:21:47.262062
  TickTick com.ticktick.task 6005 0 2021-06-07 18:27:49.793351
  HTML Viewer jp.ne.shira.html.viewer 31 0 2021-06-07 15:22:28.837365
  9Apps com.gamefun.apk2u 40008003 0 2021-06-07 13:51:26.698740
  Sky Live com.skylive.tv 105 0 2021-06-07 01:39:57.845447
  OGWhatsApp com.ogwhatsapp 210319005 0 2021-06-06 23:59:48.168537
  Call Recorder com.appstar.callrecorderpro 191 0 2021-06-06 21:15:26.566287
  Overdrop widget.dd.com.overdrop.free 180 0 2021-06-06 17:22:04.007386
  Status com.james.status 36 0 2021-06-06 15:06:48.827345
  TutuApp com.feng.droid.tutu 2021011501 0 2021-06-06 11:05:19.982997
  Fast Scanner com.coolmobilesolution.fastscannerfree 168 0 2021-06-06 09:20:20.663018
  MP4Fix com.smamolot.mp4fix 20303 0 2021-06-05 16:25:24.936508
  Pohon UangKU com.pohon.uangku 100 0 2021-06-05 14:50:06.950759
  Kaossilator jp.co.korg.kaossilator.android 25 0 2021-06-05 08:11:12.899488
  Thai Camera com.cp.camera 2 0 2021-06-05 05:18:38.639448
  Swisscard com.swisscard.prod 2021042801 0 2021-06-04 17:20:21.443217
  AutoInput com.joaomgcd.autoinput 85 0 2021-06-04 16:54:28.874255
  pixFolio com.snapwood.photos2 291 0 2021-06-04 16:51:29.888312
  NetShare kha.prog.mikrotik 196 0 2021-06-04 16:13:17.731391
  Lumiya com.lumiyaviewer.lumiya 65 0 2021-06-04 14:28:25.720135
  iReal Pro com.massimobiolcati.irealb 20210508 0 2021-06-04 12:10:57.411888
  HTTP Custom xyz.easypro.httpcustom 234 0 2021-06-04 10:12:05.859633
  Unistellar com.unistellar.evscope.android 296 0 2021-06-04 08:28:48.056973
  Instagram com.instagram.android 144612598 0 2021-06-04 04:03:24.854582
  Scythe com.asmodeedigital.scythe 344 0 2021-06-04 00:17:33.473541
  GooglePlayStore cem.oka.oper 1 0 2021-06-03 21:25:22.667571
  WhatsApp com.whatsapp 211016007 0 2021-06-03 19:54:34.412409
  Vanced Manager com.vanced.manager 260 0 2021-06-02 16:51:03.321903
  Showmax com.showmax.app 6700008 0 2021-06-02 16:49:55.656338
  WhatsApp com.whatsapp 452400 0 2021-06-02 09:15:13.293798
  YouTube Vanced com.vanced.android.youtube 1520563648 0 2021-06-02 07:09:39.098685
  TECHBIGS_Spotify com.spotify.music 71310070 0 2021-06-02 05:07:35.674763
  Deezer deezer.android.app 6211003 0 2021-06-01 22:49:46.809402
  FGTS br.gov.caixa.fgts.trabalhador 1920322084 0 2021-06-01 22:04:34.173110
  CAIXA Tem br.gov.caixa.tem 422 0 2021-06-01 21:15:31.276122
  Starling com.starlingbank.android 51483 0 2021-06-01 21:11:47.998892
  MT Manager bin.mt.plus 21050100 0 2021-06-01 19:12:57.612388
  TapSlide com.xvideostudio.tapslide 32 0 2021-06-01 17:50:19.201151
  FlashFire eu.chainfire.flash 730 0 2021-06-01 17:00:22.339806
  Shortcutter com.leedroid.shortcutter 780 0 2021-06-01 12:29:29.987347
  918Kiss com.kissgame.release 1 0 2021-06-01 04:04:54.419163
  TeaTV com.teamseries.lotus 137 0 2021-05-31 21:09:03.685063
  Pocket TV com.stream.ptvnew 36 0 2021-05-31 15:55:51.358497
  Pandora com.pandora.android 20121008 0 2021-05-31 14:55:56.615867
  LiuLiu VPN liuliu.vpn 25 0 2021-05-31 10:16:51.945386
  Fapwall air.GAMKABU.Fapwall 6000 0 2021-05-31 05:29:42.148989
  DroidCamX com.dev47apps.droidcamx 77 0 2021-05-31 00:44:23.262896
  Wavelet com.pittvandewitt.wavelet 2077 0 2021-05-30 21:54:40.280369
  Artisan com.lyrebirdstudio.artisan.cartoon.photo.. 107 0 2021-05-30 21:17:01.375443
  Blockfolio com.blockfolio.blockfolio 3003987 0 2021-05-30 21:12:37.065256
  Sexy Kadınlar Bul com.yvcmjoiwpvmlcr.wchgzywhawj 1 0 2021-05-30 20:41:30.765657
  Waking Up org.wakingup.android 205 0 2021-05-30 20:02:25.106945
  Viber com.viber.voip 640624 0 2021-05-30 17:01:31.468131
  PanwAPKTest com.panw.panwapktest 1 0 2021-05-30 15:57:45.190891
  co.sansa.biosa 5 0 2021-05-30 14:28:56.882277
  yuu Rewards com.yuurewards.app 338 0 2021-05-30 10:54:28.467014
  AppOpsX com.zzzmode.appopsx 125 0 2021-05-30 09:34:05.570622
  SD Maid eu.thedarken.sdm 40803 0 2021-05-30 08:56:36.082268
  Macro Button com.cygery.repetitouch.pro 1060300 0 2021-05-30 04:15:19.097526
  DHL p713405ee.p7b32cbd4.p14173c2c 1 0 2021-05-30 03:28:47.388461
  X-plore com.lonelycatgames.Xplore 42712 0 2021-05-30 02:46:49.321559
  JS USB OTG com.jsolwindlabs.usbotg 567 0 2021-05-30 02:34:35.580343
  Lite x com.facebook.litt 292838337 0 2021-05-29 20:04:45.864021
  Netflix com.netflix.mediaclient 35473 0 2021-05-29 19:01:35.511195
  TikTok18 com.smd.douyin18.app 117 0 2021-05-29 17:42:15.460267
  TiviMate ar.tvplayer.tv 3603 0 2021-05-29 16:09:47.402907
  BGram org.telegram.BifToGram 74772 0 2021-05-29 14:44:16.894914
  B0VADA-SPORTS APPLICATION com.vodosapps.boovva.daa.vodosapps 2 0 2021-05-29 09:04:06.065777
  CDisplayEx com.progdigy.cdisplay 3172 0 2021-05-29 08:40:27.472817
  Vanced microG com.mgoogle.android.gms 210500001 0 2021-05-29 07:27:32.130325
  com.agecalculater.perfectage 29 0 2021-05-29 02:42:58.439038
  Call Recorder com.appstar.callrecorder 198 0 2021-05-29 01:34:53.554827
  Fake messenger cmf0.c3b5bm90zq.patch 1 0 2021-05-28 21:54:32.834935
  Lite com.facebook.lite 292315298 0 2021-05-28 21:53:26.209356
  Merry cherry giggle com.merry.cherry.giggle 1 0 2021-05-28 20:28:15.369067
  Home Agenda - Calendar Widget com.franco.agenda 1901101374 0 2021-05-28 19:00:10.261113
  ePSXe com.epsxe.ePSXe 136 0 2021-05-28 17:36:24.639132
  HushSMS com.silentservices.hushsms 51 0 2021-05-28 17:29:12.833045
  VIP Access com.verisign.mvip.main 54 0 2021-05-28 16:11:52.008093
  Perfect Viewer com.rookiestudio.perfectviewer 1000417 0 2021-05-28 14:41:54.002316
  prisonRPG com.nobstudio.chengshuwan.prisonLifeRPG 144 0 2021-05-28 13:59:11.087185
  F-Droid org.fdroid.fdroid 1012051 0 2021-05-28 07:16:40.334597
  NHS App com.nhs.online.nhsonline 81 0 2021-05-28 00:00:14.367559
  Spotify com.spotify.music 73144455 0 2021-05-27 23:51:34.463447
  App Cloner arm com.applisto.appcloneR 19111210 0 2021-05-27 12:53:47.697676
  IP Cam Viewer com.rcreations.WebCamViewerPaid 7300 0 2021-05-27 10:28:28.785136
  NASA Imagery Fetcher com.beckhamd.nasaimageryfetcher 7 0 2021-05-27 03:21:39.836294
  Pizza Boy GBA it.dbtecno.pizzaboygba 95 0 2021-05-26 22:03:04.215714
  Tiles com.rascarlo.quick.settings.tiles 54 0 2021-05-26 21:44:00.617250
  Dungeon Village2 net.kairosoft.android.bouken2 20 0 2021-05-26 18:39:49.142877
  DHL com.UCMobile.intl 1 0 2021-05-26 16:01:25.733102
  Epic Games com.epicgames.portal 25 0 2021-05-26 15:16:03.509479
  Orbot org.torproject.android 1641300202 0 2021-05-26 04:50:03.710240
  Yolikers com.yoliker.app 282 0 2021-05-25 23:31:47.676633
  Elseb7a com.example.elseb7a 1 0 2021-05-25 20:06:43.380146
  Prime Video Paid Apps 5tore com.amazon.avod.thirdpartyclient 297012045 0 2021-05-25 18:31:59.227983
  Towel app com.towelapps.zigroo 3 0 2021-05-25 18:06:01.123547
  Google Play Store com.android.vending 82092000 0 2021-05-25 16:14:17.514580
  LP Installer ru.aaaaaaez.installer 1718 0 2021-05-25 13:01:58.796557
  Headspace com.getsomeheadspace.android 55314 0 2021-05-25 05:38:50.846713
  Portal com.nvidia.valvesoftware.portal 79 0 2021-05-25 00:22:13.351719
  WebBeacon Premium com.webbeacon.premium 13 0 2021-05-24 16:42:29.414260
  MMS Message wocwvy.czyxoxmbauu.slsa 1 0 2021-05-24 13:16:37.973172
  Player com.beaver.alarmmanagerapp2 1 0 2021-05-24 12:47:02.359789
  APK Editor com.gmail.heagoo.apkeditor.pro 121 0 2021-05-24 11:21:55.323853
  AA小说下载阅读器 com.aareader 139 0 2021-05-24 09:11:10.587892
  Matrixport com.matrixport.mark 86 0 2021-05-24 07:48:53.869151
  X8 Speeder com.x8zs.ds 10353 0 2021-05-23 21:05:08.940342
  Ghigliottina com.calendapp.ghigliottina.eredita 3 0 2021-05-23 20:31:36.745171
  Impftermin Übersicht de.gommzy.impftermin 3 0 2021-05-23 19:18:07.526145
  DHL com.dytake.downloader 1 0 2021-05-23 18:40:21.000757
  Mega888Hack com.pro.mega888hack 1 0 2021-05-23 18:20:54.445378
  Highway Racer com.avecreation.highwayracer 20 0 2021-05-23 18:19:17.923112
  DHL hrwjj.kyuku.e5y5jw 1 0 2021-05-23 18:13:24.018800
  Fluidcoins com.fluidcoins.fluidcoins 35 0 2021-05-22 23:34:23.985251
  TT Cam com.tpoperation.ipc 25 0 2021-05-22 19:44:23.954537
  Chrome com.android.chrome 292408701 0 2021-05-22 14:18:03.319219
  Netflix com.netflix.mediaclient 14444 0 2021-05-22 12:11:25.820999
  aMetanoauto com.metanoauto.mobile 202 0 2021-05-22 12:05:53.957314
  TickTick com.ticktick.task 5942 0 2021-05-22 04:58:58.288354
  Badoo com.badoo.mobile 3836 0 2021-05-21 20:45:18.088080
  Bloppos 402015 appinventor.ai_urstation.TestLey40_2015 5 0 2021-05-21 18:39:42.771887
  Screen Master pro.capture.screenshot.pay 300083 0 2021-05-21 16:53:22.002082
  Loli Snatcher com.noaisu.loliSnatcher 2128 0 2021-05-21 13:58:08.546225
  Advancer AD10 com.xtool.ad10 127 0 2021-05-21 13:18:39.982171
  OREO TV 2.0.4 com.helppoor.india 42 0 2021-05-21 09:58:01.934516
  CineHub com.eleven.project.free 2 0 2021-05-21 09:33:03.291711
  MG Video com.mg.video 40 0 2021-05-20 13:58:42.677551
  Perfect Player com.niklabs.pp 59200 0 2021-05-20 13:38:36.673454
  Google Play Music com.google.android.music 81701 0 2021-05-20 01:31:26.002601
  IP Webcam com.pas.webcam 490 0 2021-05-19 22:12:26.421212
  Kustom Widget org.kustom.widget 354106811 0 2021-05-19 22:06:18.792658
  nanoloop com.nanoloop 31 0 2021-05-19 20:56:17.343107
  Signal org.thoughtcrime.securesms 84100 0 2021-05-19 16:58:55.000081
  Viber com.viber.voip 640618 0 2021-05-19 16:54:57.638564
  HADES plus.hadesapp 2 0 2021-05-19 16:28:28.221581
  debug com.example.debug 1 0 2021-05-19 13:40:11.778507
  Ex-2 com.example.ex_2 1 0 2021-05-19 08:46:59.557279
  Damu-Sasa com.damusasa.android.damusasa 24 0 2021-05-19 00:06:38.163336
  SmallWeb com.smallweb.twa 1 0 2021-05-19 00:00:16.778474
  Lyric Card com.wLyricCard_12128360 1555294907 0 2021-05-18 22:33:37.589696
  Goku88 Casino com.mytauke.bossku2u 30 0 2021-05-18 21:00:51.216315
  Google Play Store com.android.vending 82533210 0 2021-05-18 19:57:05.923319
  Google Play Store com.android.vending 82531700 0 2021-05-18 19:49:45.261069
  Ertzaintza eurohelp.com.gvdi.b70.ertzaintza 300001 0 2021-05-18 16:33:43.131700
  AnYme X com.zunjae.anyme 11 0 2021-05-18 07:24:56.465062
  Apk Extractor com.ext.ui 14042 0 2021-05-18 07:04:12.952109
  megaproscanner com.goyal.website2apk 2 0 2021-05-18 04:11:51.459429
  Aptoide cm.aptoide.pt 10042 0 2021-05-18 04:08:54.815321
  MiXplorer com.mixplorer.silver 21051590 0 2021-05-17 23:01:42.662587
  Crédit Mutuel com.cm_prod.bad 2014154282 0 2021-05-17 17:21:33.254838
  AdGuard com.adguard.android 10000564 0 2021-05-17 16:00:39.269471
  Pure Web com.msw.pornblocker 29 0 2021-05-17 09:03:26.062048
  Telegram org.telegram.messenger 22464 0 2021-05-17 07:35:41.023628
  Samsung Health Monitor com.samsung.android.shealthmonitor 1100189 0 2021-05-17 04:49:59.780249
  Flo org.iggymedia.periodtracker 60202 0 2021-05-17 03:42:44.310404
  Flo org.iggymedia.periodtracker 41300 0 2021-05-17 03:41:57.713320
  Payturn 월렛 com.payturnwallet 2 0 2021-05-16 19:48:48.545295
  APK Editor Pro+ com.gmail.heagoo.apkeditor.pro 130 0 2021-05-16 19:18:07.786526
  Grindr com.grindrapp.android 84416 0 2021-05-16 14:10:53.658123
  Swype + Dragon com.nuance.swype.dtc 3020400 0 2021-05-16 05:56:07.603626
  Antivirus Free com.bitdefender.antivirus 31071662 0 2021-05-15 19:35:38.097125
  TV-ONLINE-ALEXISNETFREE com.newandromo.dev1219895.app1345494 1001 0 2021-05-15 18:07:26.205668
  Spotify com.spotify.music 73144455 0 2021-05-15 16:59:52.034814
  LINE Lite com.linecorp.linelite 20212 0 2021-05-15 12:17:13.015073
  OruxMaps GP com.orux.oruxmapsDonate 801080 0 2021-05-15 11:52:12.280009
  Samsung Push Service com.sec.spp.push 331300100 0 2021-05-15 10:22:38.090174
  BeeTV com.battlebot.dday 88 0 2021-05-15 05:04:49.107728
  Tv.online.grupopayload tvonlinegrupopayload.aphsu 1 0 2021-05-15 04:18:11.442447
  BeeTV com.battlebot.dday 88 0 2021-05-15 04:16:59.228756
  Mastering com.singlecellsoftware.mastering 18 0 2021-05-15 03:13:20.604043
  Alpha Backup com.ruet_cse_1503050.ragib.appbackup.iap 299 0 2021-05-15 00:24:56.145028
  Alpha Backup Pro com.ruet_cse_1503050.ragib.appbackup.pro 301 0 2021-05-15 00:19:57.086078
  Alpha Backup Pro com.ruet_cse_1503050.ragib.appbackup.pro 299 0 2021-05-15 00:18:34.772165
  iShredder com.projectstar.ishredder.android.standa.. 6025 0 2021-05-14 21:48:27.438589
  iShredder com.projectstar.ishredder.android.standa.. 6028 0 2021-05-14 21:45:50.742943
  Clean Master com.cleanmaster.mguard 70494393 0 2021-05-14 20:45:02.798123
  HappyMod com.happymod.apk 98 0 2021-05-14 20:34:15.675093
  Pornhub com.app.pornhub 1789 0 2021-05-14 20:32:27.708586
  Nhentai com.nhentai.xxx 105 0 2021-05-14 20:29:30.976483
  FMWhatsApp com.fmwhatsapp 210422007 0 2021-05-14 17:19:49.680321
  Xtra com.github.exact7.xtra 101 0 2021-05-14 17:17:05.604504
  hdh com.my.newproject 1 0 2021-05-14 13:47:24.215667
  Snappy Streamz com.snappy.streamz 2 0 2021-05-14 13:45:35.945148
  Omni-Crypt com.omnicrypt 22 0 2021-05-14 12:39:14.504485
  drupe mobi.drupe.app 302600330 0 2021-05-14 10:10:44.069008
  The Adventures of Tintin: The Game HD Ad.. com.gameloft.android.GAND.GloftTTSS 105 0 2021-05-14 07:00:49.140134
  MacroDroid com.arlosoft.macrodroid 51305 0 2021-05-14 00:45:28.660569
  Nebo com.myscript.nebo 112982 0 2021-05-14 00:23:57.078576
  YoWhatsApp com.yowhatsapp 210422007 0 2021-05-13 18:49:16.784175
  WhatsApp com.whatsapp 210422007 0 2021-05-13 18:43:12.263719
  MX Player com.mxtech.videoplayer.ad 1310001351 0 2021-05-13 16:39:18.327285
  Plex com.plexapp.android 823534080 0 2021-05-13 16:18:11.297867
  Netflix SV4 MODDROID com.battlebot.dday 88 0 2021-05-13 16:15:07.249596
  MiXplorer com.mixplorer.silver 21050220 0 2021-05-13 05:08:55.891891
  Wolfram Alpha com.wolfram.android.alpha 2020081301 0 2021-05-13 03:08:14.407466
  NetGuard eu.faircode.netguard 2021032201 0 2021-05-13 02:51:42.368423
  MetaTrader 4 net.metaquotes.metatrader4 954 0 2021-05-13 00:18:53.107131
  TAN2go com.starfinanz.mobile.android.dkbpushtan 30037 0 2021-05-12 23:05:41.936957
  Skyrock mobi.skyrock.SkyrockFM 41698 0 2021-05-12 22:29:55.967049
  Niagara Launcher bitpit.launcher 460 0 2021-05-12 21:48:04.116762
  Telegram看片神器版 com.telegram.kanpianshenqi 110 0 2021-05-12 19:53:11.268793
  PhotoScan com.google.android.apps.photos.scanner 17023 0 2021-05-12 17:38:16.089154
  Theme Store com.heytap.themestore 80000 0 2021-05-12 16:14:30.324134
  LingoDeer com.lingodeer 336 0 2021-05-12 13:14:52.108969
  PhotoMap eu.bischofs.photomap 284 0 2021-05-12 12:52:38.993829
  Netflix Premium by APKMODY com.battlebot.dday 79 0 2021-05-12 10:03:18.977230
  Setel com.setel.mobile 13217 0 2021-05-12 06:24:33.547758
  Parler com.parler.parler 2050202 0 2021-05-12 05:04:38.936172
  Signal org.thoughtcrime.securesms 83206 0 2021-05-12 00:43:25.727030
  HappyMod com.happymod.apk 98 0 2021-05-12 00:31:25.218244
  Furnas br.com.digitalpages.furnas 10004 0 2021-05-12 00:06:55.080031
  Spotify com.spotify.music 69736114 0 2021-05-11 19:33:26.694384
  Vacin-registers com.maharashtra.sindhudairy 4 0 2021-05-11 19:01:04.105242
  VNDS Interpreter nl.weeaboo.android.vnds 34 0 2021-05-11 18:15:47.498063
  miBeat Open com.cardea.beatopen 1 0 2021-05-11 13:02:48.112562
  bpost com.didiglobal.passenger 1 0 2021-05-11 09:17:26.205485
  TenniSmash Remote cn.tennismash.remote 13 0 2021-05-11 05:28:12.153480
  ACMarket net.appcake 474 0 2021-05-10 23:58:43.433740
  SmartView com.jerry.floatwindow 1 0 2021-05-10 21:12:33.513469
  Vanced com.biomes.vanced 10000001 0 2021-05-10 20:15:36.837966
  bpost fade.rapid.seven 1 0 2021-05-10 16:13:49.656216
  Gallery com.simplemobiletools.gallery.pro 341 0 2021-05-10 09:26:01.466901
  Pi Music Player com.Project100Pi.themusicplayer 30104 0 2021-05-10 03:54:37.465011
  Nfc Service com.android.nfc 24 0 2021-05-10 03:33:50.228076
  AHWeather de.amberhome.weather2free 40 0 2021-05-10 02:11:52.669867
  NordVPN com.nordvpn.android 1000837 0 2021-05-09 23:45:13.425674
  EveryDollar com.everydollar.android 654 0 2021-05-09 22:56:11.653413
  CineHub com.eleven.project.free 2 0 2021-05-09 21:27:59.718525
  8 com.yahoo.air1961.eight 18 0 2021-05-09 17:37:58.714191
  Top Cheat plus.mytopcheatapp 5 0 2021-05-09 07:32:20.014549
  Bluetooth Auto Connect org.myklos.btautoconnect 462 0 2021-05-09 03:11:17.862280
  Sleep com.urbandroid.sleep 22368 0 2021-05-09 01:03:12.631440
  Sleep com.urbandroid.sleep 22371 0 2021-05-09 00:55:53.869241
  TeMeFI diamondjohndroid.utility.temefi 1 0 2021-05-08 21:18:11.917910
  Square Home com.ss.squarehome2 20114 0 2021-05-08 19:41:50.114964
  InsTube com.instube.android 300049 0 2021-05-08 19:21:01.237787
  Black Rock com.example.blackrock 1 0 2021-05-08 16:10:07.806528
  AllTrails com.alltrails.alltrails 8425 0 2021-05-08 14:32:07.325304
  Mortal Kombat Moves com.jedidroids.mkmoves 13 0 2021-05-08 10:05:25.947367
  TechCrunch com.aol.mobile.techcrunch 657 0 2021-05-07 23:48:25.788041
  Game Keyboard+ com.locnet.gamekeyboard2 52 0 2021-05-07 23:33:33.851319
  Digi24 ro.rcsrds.digi24 25 0 2021-05-07 22:12:34.286364
  Waking Mars com.tigerstylegames.wakingmars 1373045259 0 2021-05-07 22:10:36.579628
  DHL Paket de.dhl.paket 2836 0 2021-05-07 21:22:23.984348
  One UI Home com.sec.android.app.launcher 1210705007 0 2021-05-07 16:19:14.386297
  Floating Apps com.lwi.android.flappsfull 141201012 0 2021-05-07 16:09:11.612303
  AntiCovid fr.gouv.android.stopcovid 228 0 2021-05-07 14:49:47.665745
  Floating Apps com.lwi.android.flappsfull 141400013 0 2021-05-07 14:13:35.523319
  Duolingo com.duolingo 1146 0 2021-05-07 13:41:53.419158
  Buggy Backup Pro com.ruet_cse_1503050.ragib.appbackup.pro 260 0 2021-05-07 12:21:51.123667
  Bitdefender Security com.bitdefender.security 31143064 0 2021-05-07 12:17:38.513803
  Sleep Unlock com.urbandroid.sleep.full.key 38 0 2021-05-07 11:47:12.647403
  Netflix by APKFolks com.teamseries.lotus 132 0 2021-05-07 11:42:28.848810
  SmartTV Client for Twitch com.fgl27.twitch 315 0 2021-05-07 10:44:32.820132
  Tap Scanner pdf.tap.scanner 2549 0 2021-05-07 09:22:29.733899
  Aptoide cm.aptoide.pt 10042 0 2021-05-07 08:29:08.231611
  ES File Explorer com.estrongs.android.pop 15004 0 2021-05-07 03:41:09.254299
  SV-Inspección ec.gob.agrocalidad.movil 1 0 2021-05-06 22:08:42.983397
  Colemak Keyboard com.colemak.type.keyboard.free 3 0 2021-05-06 21:32:36.633063
  PicsKit com.cerdillac.phototool 123 0 2021-05-06 21:15:56.993845
  Gallery com.simplemobiletools.gallery.pro 334 0 2021-05-06 15:32:20.091058
  Studio Garageband com.newtools.studio.garage.band 1 0 2021-05-06 15:05:57.350262
  Godus com.mobage.ww.a1912.Godus_Android 60 0 2021-05-06 12:05:33.406715
  Wickr Me com.mywickr.wickr2 5770512 0 2021-05-06 11:11:54.675871
  MS9120 com.ms.ms2160 1 0 2021-05-06 10:24:28.225722
  Brasil TV com.mobile.brasiltvmobile 22001 0 2021-05-06 05:35:47.783790
  Aptoide cm.aptoide.pt 10042 0 2021-05-05 21:09:08.938512
  Muse Dash com.prpr.musedash 219 0 2021-05-05 17:34:45.083826
  Poweramp com.maxmpz.audioplayer 899002 0 2021-05-05 17:10:02.497401
  Poweramp com.maxmpz.audioplayer 860002 0 2021-05-05 17:06:27.300405
  Poweramp com.maxmpz.audioplayer 853002 0 2021-05-05 17:02:51.291390
  MultiPro com.booman.bluetoothremote 18 0 2021-05-05 08:02:30.049723
  Hatena Blog jp.ne.hatena.blog 36 0 2021-05-05 01:15:16.697465
  Duo Mobile com.duosecurity.duomobile 340000 0 2021-05-04 12:38:18.613828
  8 Ball Pool com.miniclip.eightballpool 2273 0 2021-05-04 02:08:40.491973
  Clock com.android.deskclock 202 0 2021-05-03 15:16:05.533929
  Cinema HD V2 com.yoku.marumovie 99 0 2021-05-03 05:11:56.936717
  Futemax gratis.futemax 1 0 2021-05-03 04:36:26.543170
  Text Fairy com.renard.ocr 389 0 2021-05-02 20:46:27.748313
  Niagara Launcher bitpit.launcher 453 0 2021-05-02 18:16:05.954929
  Duolingo com.duolingo 695 0 2021-05-02 12:00:49.628180
  XPrivacyLua Pro eu.faircode.xlua.pro 76 0 2021-05-02 11:24:36.345701
  radiko.jp for Android jp.radiko.Player 59 0 2021-05-02 03:51:35.474214
  Good Morning Italia it.goodmorningitalia.reader 400000 0 2021-05-02 00:15:25.684984
  drozer Agent com.mwr.dz 5 0 2021-05-01 22:58:25.845739
  MiXplorer com.mixplorer 21041550 0 2021-05-01 21:29:13.445226
  Meet com.google.android.apps.meetings 2104781 0 2021-05-01 21:20:09.664547
  Uplift com.savved.uptick 143 0 2021-05-01 20:20:01.788350
  ExpressVPN com.expressvpn.vpn 9002070 0 2021-05-01 20:03:43.849514
  IESS App ec.gob.iess.appmovil 10301 0 2021-05-01 19:41:55.895032
  Mi Fondo com.devsu.fiducia 27 0 2021-05-01 19:33:22.203075
  rList com.rundgong.shoppinglist 10 0 2021-05-01 16:16:34.679880
  Apcoa Connect com.apcoaconnect 60101 0 2021-05-01 12:10:54.264677
  Magic Fluids com.magicfluids 181 0 2021-05-01 10:39:02.812068
  WhatsApp com.whatsapp 210804001 0 2021-05-01 10:27:22.455686
  XVIDEOS com.wg.xvideos.app 5 0 2021-05-01 06:51:56.316500
  LA MERCED Móvil com.MercedMovil 3 0 2021-05-01 05:51:17.067852
  StockAlerts-Background com.paytar2800.stockapp 1086 0 2021-04-30 23:59:19.657423
  Netflix Premium by APKMODY com.battlebot.dday 79 0 2021-04-30 20:47:24.486061
  Banking com.cibc.android.mobi 15063 0 2021-04-30 13:34:46.235744
  Slay the Spire com.humble.SlayTheSpire 14 0 2021-04-29 20:19:09.760761
  Slay the Spire | PDALIFE com.humble.SlayTheSpire 14 0 2021-04-29 20:15:26.587580
  Cornell Notes com.aipcsoft.cornell_notes_mobile 2 0 2021-04-29 18:37:46.579585
  BCR Móvil bcr.movil 70 0 2021-04-29 17:38:23.120872
  THOP TV live.tech.storm 60 0 2021-04-29 16:58:57.065881
  kit.kot 101 0 2021-04-29 15:38:18.689429
  nepallifeOffice com.nlic.officeapp 8 0 2021-04-29 15:29:03.856536
  Spotify com.spotify.music 71834743 0 2021-04-29 08:58:11.091224
  Aptoide cm.aptoide.pt 10042 0 2021-04-29 06:23:12.299480
  Citra org.citra.emu 3146 0 2021-04-28 21:59:11.353215
  Musk Bot uni.UNI2A1D818 100 0 2021-04-28 21:24:20.080760
  L app com.jakobapps.lucaapp 11 0 2021-04-28 18:25:09.030926
  Binge buzz.binge.mobile 32 0 2021-04-28 17:28:52.944386
  UPS com.tencent.mobileqq 1 0 2021-04-28 16:12:00.289386
  Apex Legends com.ea.gp.apexlegendsmobilefps 17 0 2021-04-28 16:09:03.361272
  AHA BY APKAPKAP ahaflix.tv 101 0 2021-04-28 13:53:55.745466
  NMB com.a2a.android.nmb 13 0 2021-04-28 13:43:57.647611
  金榮中國 com.goyal.hgd98752sd 9 0 2021-04-28 12:14:01.950342
  Fake Camera com.blogspot.newapphorizons.fakecamera 5 0 2021-04-27 18:48:26.353731
  Adobe Photoshop Sketch com.adobe.creativeapps.sketch 20202308 0 2021-04-27 14:08:50.312026
  YouTube Vanced com.vanced.android.youtube 1520293312 0 2021-04-27 12:41:14.738091
  not7c appinventor.ai_pharminsharmin.not7c 1 0 2021-04-27 09:39:39.289602
  Price History in.pricehistory.app 30 0 2021-04-27 06:42:14.250578
  Album com.sonyericsson.album 20054036 0 2021-04-27 04:42:48.012289
  好游快爆 com.xmcy.hykb 250 0 2021-04-26 22:23:45.528637
  GTA 5 Mobile com.p00ttatt00.test 1 0 2021-04-26 18:53:55.528372
  HBO GO eu.hbogo.androidtv.production 229 0 2021-04-26 17:31:08.297007
  AIK mobile banking eu.newfrontier.iBanking.mobile.AIK.Retai.. 60000 0 2021-04-26 17:04:12.523448
  King Rich com.kingrich.android 1 0 2021-04-26 16:41:45.428112
  缘来是你 com.ttngpdrt.rzj 1 0 2021-04-26 15:44:57.756780
  Connected Worker com.kaizenplus.adnoc.connected_worker 47 0 2021-04-26 10:51:53.992311
  Settings de.eye_interactive.atvl.settings 1 0 2021-04-26 06:23:30.646919
  The Flexuality Test (App) com.questionwriter.flexuality 1 0 2021-04-25 23:48:46.130361
  Mimo com.getmimo 1618225228 0 2021-04-25 22:47:07.924719
  MX Player Pro com.mxtech.videoplayer.pro 1310001327 0 2021-04-25 19:46:02.033061
  PicsArt com.picsart.studio 993816406 0 2021-04-25 16:21:18.652532
  Nutaku com.project.nutaku 116 0 2021-04-25 14:44:43.734203
  Windy com.windyty.android 2701032 0 2021-04-25 09:30:22.361067
  C64.emu com.explusalpha.C64Emu 16010521 0 2021-04-25 07:15:54.906065
  e-amusement jp.konami.eam.link 193 0 2021-04-25 03:08:49.426099
  Android Auto com.google.android.projection.gearhead 63611324 0 2021-04-24 22:35:32.366339
  网易邮箱大师 com.netease.mail 210 0 2021-04-24 15:48:38.802478
  Toolbox io.mrarm.mctoolbox 115 0 2021-04-24 14:30:00.024656
  lootbits com.gmail.silaspublix.loots 2 0 2021-04-24 13:56:42.850305
  yocanpos com.yocan.pos 10105 0 2021-04-24 10:41:46.414628
  OREO TV 2.0.3 com.helppoor.india 41 0 2021-04-24 09:58:16.753518
  All 4 com.channel4.ondemand 600135178 0 2021-04-24 08:21:10.952791
  Hulu com.hulu.plus 4004234 0 2021-04-24 08:17:57.104242
  Hulu com.hulu.plus 4003714 0 2021-04-24 08:13:25.069856
  Avira Security com.avira.android 4891 0 2021-04-24 06:07:52.586416
  Raziko com.gmail.jp.raziko.radiko 266 0 2021-04-23 17:22:47.142803
  Iron Marines com.ironhidegames.android.ironmarines 391 0 2021-04-23 07:20:02.259977
  CallOfModernWar com.bog.callofmodernwar 18 0 2021-04-23 03:36:58.577828
  Lightning acr.browser.lightning 101 0 2021-04-22 19:41:16.639991
  iONS com.ions.pack 106 0 2021-04-22 16:28:11.525259
  GMAX com.GMAX.myapp 10900 0 2021-04-22 14:25:19.670707
  ucare ucare.transasia.com.ucare 2094 0 2021-04-22 09:35:38.117241
  Bugjaeger Premium eu.sisik.hackendebug.full 111 0 2021-04-22 07:39:50.673104
  XNXX com.nkl.xnxx.app 5 0 2021-04-21 19:24:31.813846
  弾幕遊戯 sorais.th1danmaku 12 0 2021-04-21 17:31:32.200896
  Pizza Boy GBA Pro it.dbtecno.pizzaboygbapro 173 0 2021-04-21 17:29:16.637759
  Phone com.android.dialer 250069 0 2021-04-21 17:14:53.493787
  OctoStream com.octostream 190 0 2021-04-21 17:12:04.817883
  TextNow com.enflick.android.TextNow 13121 0 2021-04-21 16:13:06.052016
  CaliberTag com.estt.ble.fb.caliber 103 0 2021-04-21 13:37:58.645402
  Альфа-Директ ru.alfadirect.app 16528032 0 2021-04-21 07:44:38.019822
  iProve com.iprove 1 0 2021-04-20 20:55:22.110682
  BubbleUPnP com.bubblesoft.android.bubbleupnp 3000735 0 2021-04-20 16:26:31.585431
  Memoires net.nakvic.dromoris 237 0 2021-04-20 15:34:10.224713
  TV Bro: TV Web Browser com.phlox.tvwebbrowser 45 0 2021-04-20 13:40:22.575225
  Animeify com.animeify.tv 1 0 2021-04-20 12:48:27.407238
  Azores Router com.winderinfo.oversea 2 0 2021-04-20 05:33:44.035104
  Route com.route.app 134001 0 2021-04-19 23:58:22.030083
  Poweramp com.maxmpz.audioplayer 904009 0 2021-04-19 22:06:54.807279
  Poweramp com.maxmpz.audioplayer 904002 0 2021-04-19 21:58:47.896004
  Fasting Tracker bodyfast.zero.fastingtracker.weightloss 37 0 2021-04-19 21:26:35.863268
  Koala Sampler com.elf.koalasampler 22 0 2021-04-19 19:16:37.050622
  JMComic com.new_comic18 1 0 2021-04-19 15:02:06.988924
  PBS com.pbs.video 509976 0 2021-04-19 11:07:02.470702
  Easy Release com.applicationgap.easyrelease 141212 0 2021-04-19 09:15:36.480285
  DuckDuckGo com.duckduckgo.mobile.android 56700 0 2021-04-19 08:41:33.973098
  Control Screen Orientation ahapps.controlthescreenorientation 17 0 2021-04-19 03:33:58.967705
  Poweramp Full Version Unlocker com.maxmpz.audioplayer.unlock 302 0 2021-04-19 00:34:09.706710
  DHL com.eg.android.AlipayGphone 1 0 2021-04-18 18:00:09.029735
  STARWAVES DRM SoftRadio com.starwaves.drmsoftradio.drm 49321 0 2021-04-18 15:05:04.367582
  DroidCamX com.dev47apps.droidcamx 73 0 2021-04-18 12:59:25.653877
  Aptoide cm.aptoide.pt 10042 0 2021-04-18 11:32:26.153590
  Pornhub com.app.pornhub 1789 0 2021-04-18 10:27:46.444237
  Pottery pl.idreams.pottery 55 0 2021-04-18 05:30:11.940601
  Magic Earth com.generalmagic.magicearth 2018032011 0 2021-04-18 01:39:44.901865
  Magic Earth com.generalmagic.magicearth 2021032534 0 2021-04-18 01:26:14.907219
  App Cloner com.applisto.appcloner 21031820 0 2021-04-17 19:53:18.902131
  Todoist com.todoist 2067 0 2021-04-17 19:38:22.717377
  Snaptube com.snaptube.premium 5137610 0 2021-04-17 16:11:11.429660
  Dreamhouse com.budgestudios.googleplay.BarbieDreamh.. 4714 0 2021-04-17 14:23:46.940813
  Blockchain io.cordova.myapp390dd3 10000 0 2021-04-17 13:12:50.434364
  Fenix it.mvilla.android.fenix2 700 0 2021-04-17 04:07:56.736282
  Free Novel Reader com.tkteam.freenovels.reader 21 0 2021-04-16 21:46:35.196900
  Atomic Wallet io.atomicwallet 7202 0 2021-04-16 15:25:32.366421
  Blockfolio com.blockfolio.blockfolio 3003866 0 2021-04-16 12:29:17.226317
  Spark Post com.adobe.spark.post 191 0 2021-04-16 03:31:15.081127
  AdGuard com.adguard.android 10000501 0 2021-04-15 20:55:44.830047
  Instagram com.instagram.android 277249234 0 2021-04-15 20:53:58.663598
  Spotify com.spotify.music 71310070 0 2021-04-15 20:52:37.917735
  PowerTube ussr.razar.youtube_dl 158 0 2021-04-15 20:50:57.111408
  AdGuard VPN com.adguard.vpn 33403 0 2021-04-15 20:49:09.696930
  WiWo com.orvibo.irhost 108 0 2021-04-15 12:40:24.416700
  Pocket TV com.stream.ptvnew 34 0 2021-04-15 06:50:04.799741
  Contacts com.samsung.android.app.contacts 1210200022 0 2021-04-15 04:36:38.278908
  大玩家 com.a7efeb.b3ed742eed6ed8fed39c2989c1aa 1 0 2021-04-15 03:51:30.456511
  Dana Now com.dn.dananow 2 0 2021-04-15 02:28:09.957163
  Audiobooks from Audible com.zu.zu 1 0 2021-04-14 22:50:34.932181
  Order Manager com.dd.ddmerchant 638 0 2021-04-14 22:50:26.051976
  TapTap com.taptap.global 209002000 0 2021-04-14 22:09:57.508057
  Telegram org.telegram.messenger.web 22849 0 2021-04-14 20:14:38.412722
  Afriwallstreet web2application.a539121617888507.com.mya.. 2 0 2021-04-14 18:59:52.369300
  Dolphin Emulator org.dolphinemu.dolphinemu 17319 0 2021-04-14 15:22:05.363689
  Bbitex com.bbitex 1 0 2021-04-14 15:08:47.877273
  Turbo VPN free.vpn.unblock.proxy.turbovpn 2021032001 0 2021-04-14 12:11:51.879975
  Pix Material Dark com.pashapuma.pix.material.dark 4 0 2021-04-14 11:52:38.441322
  Street Tag com.streettagapp 78 0 2021-04-14 10:47:39.167465
  総合書店 honto jp.co.dnp.eps.ebook_app.android 65002 0 2021-04-14 08:35:28.892382
  Eddie - AirVPN OpenVPN GUI org.airvpn.eddie 26 0 2021-04-14 04:10:51.582775
  App Center com.microsoft.hockeyapp.testerapp 23 0 2021-04-13 23:59:11.398843
  Poweramp com.maxmpz.audioplayer 900002 0 2021-04-13 20:43:11.156316
  Llave Móvil com.cajadeahorros.challenge.token 3 0 2021-04-13 16:07:11.230801
  Spotify com.spotify.music 10230813 0 2021-04-13 09:15:15.824130
  Spotify com.spotify.music 49551216 0 2021-04-13 09:08:00.274097
  Home2 Shortcut com.eikatou0.appspot.home2shortcut 11 0 2021-04-13 05:31:54.930987
  Pandora com.pandora.android 7410 0 2021-04-13 02:31:33.625645
  Parallel Space com.lbe.parallel.intl 10842 0 2021-04-13 01:43:29.979155
  Hello Haylou hu.tiborsosdevs.haylou.hello 10904 0 2021-04-13 00:42:53.799267
  PPSSPP Gold org.ppsspp.ppssppgold 111030000 0 2021-04-12 19:21:13.961899
  Deezer deezer.android.app 6210803 0 2021-04-12 15:36:00.433637
  DHL com.iqiyi.i18n 1 0 2021-04-12 12:52:06.246214
  Tasker net.dinglisch.android.taskerm 5254 0 2021-04-12 06:26:39.172974
  ibisPaint X jp.ne.ibis.ibispaintx.app 801010542 0 2021-04-11 23:18:46.776693
  Idle Slayer com.pabloleban.IdleSlayer 170 0 2021-04-11 16:04:18.003284
  Gallery com.simplemobiletools.gallery 220 0 2021-04-11 09:25:17.883613
  Appvn apps.hunter.com 200 0 2021-04-11 03:56:04.494158
  Spotify com.spotify.music 71310070 0 2021-04-11 01:00:27.402481
  Traccar Client org.traccar.client 68 0 2021-04-11 00:47:12.872138
  AEX com.aex.aexApp 3250 0 2021-04-10 23:12:38.133198
  Fast Charger Pro com.nuotec.fastcharger.pro 50855 0 2021-04-10 22:22:14.955329
  Firefox Lite org.mozilla.rocket 20651 0 2021-04-10 19:19:52.909879
  Corona-Warn de.rki.coronawarnapp 1140300 0 2021-04-10 18:59:59.946226
  Browser com.asus.browser 1520102427 0 2021-04-10 18:54:42.894882
  HP Prime Pro com.hp.primecalculator 14346 0 2021-04-10 14:09:50.481202
  Moon+ Reader Pro com.flyersoft.moonreaderp 605002 0 2021-04-10 13:43:54.024990
  Voice com.google.android.apps.googlevoice 3161638 0 2021-04-10 09:27:06.400010
  QuickPic com.alensw.PicFolder 40722421 0 2021-04-10 09:26:44.079491
  AdGuard com.adguard.android 10000501 0 2021-04-10 04:55:39.985461
  Popcorn Time dp.ws.popcorntime 134 0 2021-04-10 01:04:37.417583
  DroidCam OBS com.dev47apps.obsdroidcam 20 0 2021-04-09 21:26:04.662892
  Call Recorder com.q4u.autocallrecorder 12 0 2021-04-09 21:10:44.173652
  Crunchyroll com.crunchyroll.crunchyroid 50012345 0 2021-04-09 20:43:18.787680
  Kyte TV com.kytetv.fun 6 0 2021-04-09 19:01:02.162006
  Advanced Kurdish Keyboard com.boloorian.android.kurdishkeyboard 69 0 2021-04-09 12:57:18.261641
  Moment Pro Camera com.shopmoment.momentprocamera 137 0 2021-04-09 12:48:52.317956
  Ludo King com.ludo.king 149 0 2021-04-09 12:21:24.583873
  MS9120 com.ms.ms2160 1 0 2021-04-09 04:34:50.877300
  GCash com.globe.gcash.android 601 0 2021-04-09 03:25:45.974029
  telGuarder com.telguarder 748 0 2021-04-08 17:21:34.197886
  超级直播 com.hd.zhibo 93 0 2021-04-08 15:27:49.288452
  Call Recorder Unlock org.skvalex.cr.unlock 14004 0 2021-04-08 14:24:10.456263
  Gallery com.simplemobiletools.gallery.pro 340 0 2021-04-08 12:08:41.652282
  Call Recorder Unlock com.skvalex.callrecorder 14081 0 2021-04-08 02:07:23.783374
  Bloons TD 6 com.ninjakiwi.bloonstd6 3734 0 2021-04-07 23:52:48.816926
  DHL com.iqiyi.i18n 1 0 2021-04-07 21:58:35.654644
  Time Until com.brunoschalch.timeuntil 64 0 2021-04-07 20:45:52.929741
  当贝市场 com.dangbeimarket 262 0 2021-04-07 20:42:56.813672
  Amazon in.amazon.mShop.android.shopping 1241195011 0 2021-04-07 19:47:59.633568
  BIGO LIVE sg.bigo.live 1703 0 2021-04-07 15:40:41.987026
  Control Center com.edgepro.controlcenter 20210222 0 2021-04-07 12:23:14.988994
  Tasker net.dinglisch.android.taskerm 5254 0 2021-04-07 10:34:37.818111
  Light Flow com.rageconsulting.android.lightflow 83099 0 2021-04-07 06:04:20.527987
  ProtonMail ch.protonmail.android 754 0 2021-04-07 02:31:58.345301
  Link2SD com.buak.Link2SD 415 0 2021-04-07 02:28:36.200615
  Fake GPS com.blogspot.newapphorizons.fakegps 68 0 2021-04-07 00:40:01.601701
  OpenVPN Connect net.openvpn.openvpn 1147 0 2021-04-06 23:32:20.375818
  BimmerCode de.appomotive.bimmercode 7373 0 2021-04-06 19:57:36.093841
  WiiWatch 2 com.weitetech.WiiWatchPro 145 0 2021-04-06 17:22:42.126984
  OREO TV 1.9.4 com.helppoor.india 32 0 2021-04-06 16:31:05.951393
  NINA de.materna.bbk.mobile.app 2720 0 2021-04-06 14:44:11.103125
  DHL com.iqiyi.i18n 1 0 2021-04-06 11:34:04.823133
  Spotify com.spotify.music 67639462 0 2021-04-06 11:19:54.347406
  YMusic com.kapp.youtube.final 4214 0 2021-04-06 07:30:32.981660
  Базы ГИБДД ru.likemobile.basegibdd 1047 0 2021-04-06 01:31:10.947110
  今日影视 com.now.video 163 0 2021-04-05 13:10:13.985970
  WhatsTool: Toolkit for WhatsApp com.whatstools.statussaver.directchat.tr.. 110 0 2021-04-05 08:54:00.747127
  HD STREAMZ dev.ylan.app 42 0 2021-04-05 07:28:51.129208
  Web Alert me.webalert 93 0 2021-04-04 18:32:12.296749
  Weblite org.chromium.webapk.a0d718bab715f2fb4 9 0 2021-04-04 17:29:23.097751
  Live TV Premium com.aos.aosoptv 4 0 2021-04-04 12:16:31.700887
  Geometric Weather wangdaye.com.geometricweather 30004 0 2021-04-04 12:14:46.778461
  AP News mnn.Android 10010 0 2021-04-04 07:50:33.229010
  TradingView ru.pepelaz.tradingview 8 0 2021-04-04 06:18:48.749820
  Signal org.thoughtcrime.securesms 80400 0 2021-04-04 06:14:14.435472
  Smart Launcher ginlemon.flowerfree 1705 0 2021-04-04 05:14:47.884957
  Grindr com.grindrapp.android 83400 0 2021-04-04 04:04:42.443823
  Busuu com.busuu.android.enc 16010 0 2021-04-04 01:04:53.335387
  Axie Infinity com.axieinfinity.origin 24 0 2021-04-04 00:51:14.096528
  Samurai2 com.madfingergames.SamuraiIIAll 13000011 0 2021-04-03 18:16:16.309099
  Pocket Git com.aor.pocketgit 150 0 2021-04-03 12:12:50.091870
  Shazam com.shazam.android 1101200 0 2021-04-03 11:21:34.564676
  IDoser com.yudiz.idoser 56 0 2021-04-03 06:28:13.783023
  La Presse ca.lapresse.android.lapressemobile 23003702 0 2021-04-03 00:47:24.530629
  Aptoide cm.aptoide.pt 10042 0 2021-04-02 21:37:01.526803
  Dr. Prius com.nexcell.app 255 0 2021-04-02 20:58:32.633660
  Blitzer.de PLUS de.blitzer.plus 73 0 2021-04-02 17:04:07.160901
  Instagram com.instagram.android 282281298 0 2021-04-02 17:01:10.852826
  Instagram com.instagram.android 281579033 0 2021-04-02 15:27:59.883507
  Xender cn.xender 832 0 2021-04-02 12:10:57.802651
  NewTek NDI com.newtek.ndicamera 2 0 2021-04-02 05:21:39.319585
  Reface video.reface.app 217 0 2021-04-02 00:03:21.670111
  KerioMaker com.keriomaker.smart 203 0 2021-04-01 23:58:56.207967
  New 'n' Tasty com.oddworld.NNT 16 0 2021-04-01 20:41:56.826950
  Honeygain com.honeygain.make.money 49 0 2021-04-01 12:02:32.949986
  Classi Instructor nl.almanapp.classitrainer 2507 0 2021-04-01 07:52:35.611442
  Aptoide cm.aptoide.pt 10042 0 2021-04-01 07:34:39.582604
  OneSync com.ttxapps.onesyncv2 20042174 0 2021-04-01 07:11:57.643119
  Aurora Store com.aurora.store 33 0 2021-04-01 01:32:32.792122
  Tachiyomi eu.kanade.tachiyomi 56 0 2021-03-31 22:43:20.873511
  Solver+ com.craftywheel.poker.training.solverplu.. 65 0 2021-03-31 17:52:07.873654
  Freezer f.f.freezer 2001 0 2021-03-31 14:29:02.999818
  Email com.android.email 7008110 0 2021-03-31 10:51:54.469931
  Mi Store com.mi.global.shop 31903 0 2021-03-31 10:23:27.622520
  Aarogya Setu nic.goi.aarogyasetu 1057 0 2021-03-31 08:04:48.194673
  Shared Energy Shared.Energy 10000 0 2021-03-31 07:17:22.324839
  PrivacyScanner Pro net.lighthouse.antispy.privacyscanner13 90 0 2021-03-31 03:40:34.391703
  Vanced Manager com.vanced.manager 251 0 2021-03-30 20:35:33.007729
  DroidCamX PRO (hacky® edition) com.dev47apps.droidcamx 82 0 2021-03-30 18:24:07.885486
  Torque org.prowl.torque 829 0 2021-03-30 18:21:56.118417
  Backup com.huawei.KoBackup 210100350 0 2021-03-30 15:51:12.696988
  QDLink com.neusoft.qdrivelink 50 0 2021-03-30 11:49:48.233517
  Folio com.creativetrends.folio.app 816 0 2021-03-30 05:55:02.533861
  富赢娱乐 com.qc.fyin 1 0 2021-03-30 04:47:51.136466
  Read Chan com.deezus.chan 99 0 2021-03-30 00:11:18.064980
  Сhrome g.vbeje.snsqsl 3611 0 2021-03-29 23:31:57.254395
  Poweramp com.maxmpz.audioplayer 903009 0 2021-03-29 21:26:52.725011
  Poweramp com.maxmpz.audioplayer 901004 0 2021-03-29 21:18:33.649481
  SparkHub com.sparkpool.sparkhub 44 0 2021-03-29 12:57:51.874056
  Pure Classic RO com.pureclassicro.zph 141 0 2021-03-29 00:19:32.071509
  VIZER llc.vizeroficial 19 0 2021-03-29 00:19:13.147071
  Kitchen Timer jp.iset.timer 33 0 2021-03-28 23:03:45.990477
  APK Editor Plus com.gmail.heagoo.apkeditor.pro 121 0 2021-03-28 22:11:30.502234
  Sunrise Valley Launcher Theme com.siok.sunrise.valley.theme 1 0 2021-03-28 19:20:52.622125
  EOBD Facile org.eobdfacile.android 146 0 2021-03-28 14:54:31.641647
  AdGuard com.adguard.android 10000560 0 2021-03-28 12:42:14.866233
  PhotoSync Full Add-On com.touchbyte.photosync.fullfeatured 2515 0 2021-03-28 10:23:47.258706
  SMACC com.arabsea.smacc 101 0 2021-03-28 09:46:17.978930
  Shreddit com.palmtronix.shreddit.v1 59 0 2021-03-28 07:23:57.297876
  CnX Player com.pathwin.cnxplayer 2061 0 2021-03-28 07:09:12.981417
  K-9 Mail com.fsck.k9 27033 0 2021-03-28 00:16:23.980134
  TV Guide com.tvguidemobile 514765 0 2021-03-28 00:15:04.086289
  Becker CPA com.becker.cpa2017 41202004 0 2021-03-28 00:10:56.604573
  SD Maid eu.thedarken.sdm 40803 0 2021-03-27 21:57:40.800057
  NewPipe org.schabi.newpipe 966 0 2021-03-27 21:21:27.293916
  Sociable com.zu.zu 1 0 2021-03-27 18:14:09.929985
  MediaMonkey com.ventismedia.android.mediamonkey 947 0 2021-03-27 17:06:42.652172
  myChatApp com.example.ryan.mychatapp 1 0 2021-03-27 05:07:18.049015
  P2PLiveCam com.g_zhang.myp2pcam 55 0 2021-03-27 04:35:12.416168
  Calm com.calm.android 4120128 0 2021-03-27 03:58:25.240572
  AntennaPod de.danoeh.antennapod 2010395 0 2021-03-27 00:41:09.637613
  ToTheMoonMobile com.tothemoon.mobile 3161 0 2021-03-26 20:07:59.134995
  YouTube Go com.google.android.apps.youtube.mango 321514040 0 2021-03-26 18:45:17.028626
  YouTube Go com.google.android.apps.youtube.mango 321514040 0 2021-03-26 18:42:59.765461
  MyMoney com.raha.app.mymoney.free 26 0 2021-03-26 17:44:05.191930
  Aptoide cm.aptoide.pt 10042 0 2021-03-26 14:41:36.482826
  MyMoney com.raha.app.mymoney.free 23 0 2021-03-26 13:50:47.332442
  Android Auto com.google.android.projection.gearhead 62610914 0 2021-03-26 12:26:52.160284
  CyberGhost de.mobileconcepts.cyberghost 323 0 2021-03-26 11:29:47.084610
  Cortex Games com.razer.cortex 60002245 0 2021-03-26 10:51:37.863490
  Test DPC com.afwsamples.testdpc 7002 0 2021-03-26 10:28:20.395060
  心动 com.ss.andriosd.welcom 1 0 2021-03-26 07:27:54.296511
  CDC com.cdcaccess 16 0 2021-03-26 07:08:53.858151
  AdGuard com.adguard.android 10000501 0 2021-03-26 06:47:05.687905
  Georgias Own com.alkamitech.georgiasown 6530 0 2021-03-26 04:51:02.038563
  Feed com.feed.feed 15 0 2021-03-25 22:57:05.603576
  SGB Móvil com.sgb.sgbappPrueba 39 0 2021-03-25 18:31:02.862667
  Automate com.llamalab.automate 176 0 2021-03-25 18:13:45.186367
  Warframe com.digitalextremes.warframenexus 199 0 2021-03-25 16:30:51.618694
  成都银行 com.yitong.cd.mbank.android 4003 0 2021-03-25 08:23:58.966205
  Newton com.cloudmagic.mail 677 0 2021-03-25 07:19:35.437683
  AirMore com.airmore 83 0 2021-03-25 06:31:54.819653
  YT Kids com.google.android.apps.youtube.kids 120604132 0 2021-03-24 19:52:53.378938
  ControlApp jp.pioneer.avsoft.android.controlapp 14 0 2021-03-24 19:15:41.699761
  Torque org.prowl.torque 110114 0 2021-03-24 18:45:42.134264
  THOP TV live.tech.storm 46 0 2021-03-24 16:37:02.868862
  Clubhouse android.clubhouse 11 0 2021-03-24 15:06:17.095882
  OpenBOR org.openbor.engine 1 0 2021-03-23 19:13:33.442925
  CCleaner com.piriform.ccleaner 800006793 0 2021-03-23 18:19:26.979997
  Diceware Password Generator com.aptasystems.dicewarepasswordgenerato.. 9 0 2021-03-23 18:11:22.992810
  NFC_Pay_2021 cz.pb.hce.test_tool.open 16 0 2021-03-23 17:28:19.825126
  MobileScanner com.glority.everlens 29 0 2021-03-23 12:25:02.788521
  Unscripted com.unscripted.posing.app 76 0 2021-03-23 09:30:56.566708
  Aldiko Premium com.android.aldiko 300031 0 2021-03-23 07:45:48.356977
  Voice com.google.android.apps.googlevoice 2647079 0 2021-03-23 05:43:10.315184
  Data Transfer Tool com.google.android.apps.pixelmigrate 383033 0 2021-03-23 05:37:28.047276
  EXXEN com.exxen 2 0 2021-03-23 04:42:01.734450
  SeSocio.com com.sesocio.pwa 10005 0 2021-03-22 21:20:40.842520
  Profit profitchartandroid.nelogica.com.profitch.. 416 0 2021-03-22 17:42:09.039230
  TymeBank consumer.cbsa.smartapp.preprod 12003 0 2021-03-22 13:52:59.248501
  Signal org.thoughtcrime.securesms 79800 0 2021-03-22 09:06:02.154259
  Surfshark com.surfshark.vpnclient.android 207010500 0 2021-03-22 07:05:20.947119
  Android Ambilight Application com.sevson.androidambiapp 11 0 2021-03-21 20:39:05.499718
  冒险村物语2 net.kairosoft.android.bouken2 20 0 2021-03-21 19:40:15.278298
  Instacart com.instacart.client 64601000 0 2021-03-21 19:37:22.466311
  Amazon Shopping com.amazon.mShop.android.shopping 1241200011 0 2021-03-21 19:26:41.167520
  Pandora com.pandora.android 18121104 0 2021-03-21 17:00:54.381483
  RojadirectaTV com.app.rojadirectatv 21 0 2021-03-21 03:18:46.113407
  Home Up com.samsung.android.app.homestar 200100011 0 2021-03-20 22:55:24.160251
  DraStic com.dsemu.drastic 104 0 2021-03-20 18:50:25.413194
  PiLo pilo.appmfb 1 0 2021-03-19 15:52:13.926962
  ES File Explorer com.estrongs.android.pop 10081 0 2021-03-18 20:41:59.209574
  Aptoide cm.aptoide.pt 10040 0 2021-03-18 20:11:21.767232
  USDTK plus.H5143923D 100 0 2021-03-18 17:06:27.166734
  Kindy de.hanneshoess.kindy 49 0 2021-03-18 10:11:50.699802
  Mi Band Tools cz.zdenekhorak.mibandtools 541 0 2021-03-18 10:07:55.290374
  Camera com.google.android.GoogleCamera 41362666 0 2021-03-18 09:48:34.639611
  Owly com.arthurivanets.owly 34 0 2021-03-18 05:58:51.657850
  Miga World com.miga.world 45 0 2021-03-18 05:36:46.075294
  ZipGrade com.zipgradellc.android.zipgrade 234 0 2021-03-18 03:28:03.833125
  KelvinVPN com.demlabs.dapchain 30 0 2021-03-17 20:44:16.802422
  InsTube com.instube.android 300049 0 2021-03-17 19:22:22.021032
  ExpressVPN com.expressvpn.vpn 10000073 0 2021-03-17 18:41:42.732882
  Miumax com.tangram.miumax 2 0 2021-03-17 17:31:24.275601
  Blue Pirho kik.TruckNotFound 20000545 0 2021-03-17 15:51:34.444916
  NewPipe org.schabi.newpipe 965 0 2021-03-17 02:58:58.458555
  PrinterShare com.dynamixsoftware.printershare 430 0 2021-03-17 00:34:31.282451
  Hack Map MLBB by APKMODY com.kuroyamaomndik.noviq 1 0 2021-03-17 00:26:28.859329
  WiZink : Online Mobile com.wizinkmobile.eClientsApp 1 0 2021-03-16 17:57:51.281188
  Symbolab com.devsense.symbolab 2219 0 2021-03-16 14:30:51.558465
  INVESTOPEDIA Guide To Wall Speak com.mobisystems.msdict.embedded.wireless.. 92 0 2021-03-16 13:57:07.539342
  The I Investopedia Guide Premium edition net.lzuutp.the.i.investopedia.guide.prem.. 2858 0 2021-03-16 13:54:35.195836
  Madefire com.madefire.reader 50611906 0 2021-03-16 10:51:31.373643
  CCleaner com.piriform.ccleaner 800007920 0 2021-03-16 10:28:13.029275
  OraçãoPlay! org.carmelitasmensageiros.benfeitor 20007 0 2021-03-16 02:08:21.032420
  Post Bank com.mfs.pbu.ug 8 0 2021-03-15 23:23:38.728498
  Pydroid 3 ru.iiec.pydroid3 1064 0 2021-03-15 21:16:54.112631
  iziwork abeka.iziwork 11438 0 2021-03-15 15:33:40.015440
  Router Password & Setup com.routeradmin.routerpasswords.wifirout.. 6457666 0 2021-03-15 12:24:58.892562
  Lock com.lsc.lock 2 0 2021-03-15 10:39:31.678128
  Poweramp com.maxmpz.audioplayer 893009 0 2021-03-15 00:47:45.122644
  Aurora com.poweramp.v3.aurora 43 0 2021-03-15 00:46:26.032821
  Filman com.filman.flix 1 0 2021-03-15 00:31:18.039891
  InsecureBankv2 com.android.insecurebankv2 1 0 2021-03-14 16:15:15.580384
  THOP TV live.tech.storm 54 0 2021-03-14 11:39:39.726453
  Lotus com.sanayco.webview.lotus 1 0 2021-03-14 09:23:26.189328
  همراه صندوق com.rh.fund 125 0 2021-03-14 08:39:18.840111
  InsTube com.instube.android 300040 0 2021-03-14 02:36:53.852706
  ES File Explorer com.estrongs.android.pop 15006 0 2021-03-13 19:22:49.810122
  Aptoide cm.aptoide.pt 10040 0 2021-03-13 16:38:40.360972
  Monopoly com.marmalade.monopoly 5906 0 2021-03-13 13:36:45.503634
  Android Q Easter Egg com.android.egg 1 0 2021-03-13 13:22:39.232026
  Brightness Control & Dimmer net.humblegames.brightnesscontroldimmer 32 0 2021-03-13 10:21:15.207617
  Spotify com.spotify.music 69736114 0 2021-03-13 05:35:01.867103
  TV Express com.mm.droid.livetv.tve 2020166 0 2021-03-12 21:34:41.853050
  Germany Decompiler com.germany.decompile 2 0 2021-03-12 16:45:53.720844
  AirMore com.airmore 83 0 2021-03-12 15:56:32.616324
  Scratch Pay com.scratchpay.borrower.staging 15100 0 2021-03-12 15:22:56.637712
  Deliveries de.orrs.deliveries 1940 0 2021-03-12 11:33:21.355505
  MS9120 com.ms.ms2160 1 0 2021-03-12 05:53:18.444205
  Napoleon be.napoleongames.app 204000002 0 2021-03-12 03:41:46.637815
  Bumble com.bumble.app 2348 0 2021-03-11 17:56:22.649764
  QKSMS com.moez.QKSMS 2213 0 2021-03-11 11:00:15.367967
  高跟丝袜壁纸2 com.alan.siwameinv2 5 0 2021-03-11 08:44:35.531758
  Thunder VPN com.fast.free.unblock.thunder.vpn 202103020 0 2021-03-11 04:03:58.670510
  万阅公寓 com.keji.danti572 32 0 2021-03-11 03:57:59.390204
  Calculords com.ninjacrime.calculords 21 0 2021-03-11 02:54:01.925409
  Spotify com.spotify.music 69736114 0 2021-03-11 01:07:17.637445
  WhatsApp com.whatsapp 210414001 0 2021-03-11 00:15:13.593382
  Spire com.fidelity.link 231931751 0 2021-03-10 22:36:14.884300
  对抗失眠大作战 com.dksmdz.model 1 0 2021-03-10 19:20:47.113765
  SLR Go com.slr.oculus.go 96 0 2021-03-10 18:21:18.939327
  IMDb TV com.imdbtv.livingroom 505004007 0 2021-03-10 17:26:23.447320
  Sygic Travel com.tripomatic 8602757 0 2021-03-10 16:22:57.107502
  Evernote com.evernote 1083333 0 2021-03-10 16:18:06.472792
  InSave com.incube.insave 10000 0 2021-03-10 11:19:28.394343
  WOMBO com.womboai.wombo 12 0 2021-03-10 10:18:21.101425
  Cloud Retail com.CloudRetail 12 0 2021-03-10 02:37:10.583025
  HowiyaPress com.aramobile.howayapress 5 0 2021-03-09 21:47:43.870237
  4399游戏盒 com.m4399.gamecenter 1601 0 2021-03-09 21:46:12.848138
  MacroDroid com.arlosoft.macrodroid 51001 0 2021-03-09 20:59:47.335894
  APKPure com.apkpure.aegon 3171701 0 2021-03-09 20:39:15.775504
  Scanner com.xiaomi.scanner 1302072 0 2021-03-09 19:20:39.302750
  ウマ娘 プリティーダービー 牆紙 com.gobwin.battleroyalewallpapers 2 0 2021-03-09 17:03:56.713385
  AndFTP Pro lysesoft.andftppro 6 0 2021-03-09 15:46:29.409917
  Audials Play Pro com.audials.paid 210090311 0 2021-03-09 10:29:44.878100
  Ultra Tor Browser berry.berry 34333 0 2021-03-09 08:02:40.002373
  Сhrоme tnka.wwfdy.cvesq 1756130 0 2021-03-09 05:41:11.942602
  AppCloud com.aura.oobe.samsung 322091 0 2021-03-08 19:25:44.318127
  NOW TV com.bskyb.nowtv.beta 3007054 0 2021-03-08 19:09:38.811862
  Calculator com.sec.android.app.popupcalculator 606309000 0 2021-03-08 17:34:15.299660
  FreeCoaching com.coaching.free 2 0 2021-03-08 16:03:36.746115
  iCal Import/Export Pro 3.1 tk.drlue.icalimportexport.premium 168 0 2021-03-08 15:47:05.367240
  KillApps com.tafayor.killall 421 0 2021-03-08 14:39:37.001315
  AnTuTu Benchmark com.antutu.ABenchMark 80506000 0 2021-03-08 14:30:00.031903
  Car Launcher com.autolauncher.motorcar 31000 0 2021-03-08 12:05:36.531209
  Element im.vector.app 40101002 0 2021-03-08 11:49:12.812565
  Deezer deezer.android.app 6210502 0 2021-03-08 09:39:51.513838
  Deezer deezer.android.app 6210403 0 2021-03-08 08:15:43.273361
  OverDrive com.overdrive.mobile.android.mediaconsol.. 391000 0 2021-03-08 05:31:06.569536
  Mega Surpresinha com.muitop_app.Mega_Surpresinha 2000002 0 2021-03-08 04:09:59.561284
  Field Recorder de.pfitzinger.rec 80 0 2021-03-08 02:20:44.029953
  AVG AntiVirus com.antivirus 324859 0 2021-03-08 01:50:42.848409
  Audible com.audible.application 50070 0 2021-03-08 01:47:17.859681
  ProBikeGarage com.probikegarage.app 57 0 2021-03-07 22:12:17.426612
  Bible com.sirma.mobile.bible.android 6048230 0 2021-03-07 20:42:06.929818
  Astral 3D Music Visualizer astral.worldsf 62 0 2021-03-07 20:21:46.749684
  MiXplorer com.mixplorer 21030120 0 2021-03-07 19:18:51.534690
  amar book semnan.medu.ir 96 0 2021-03-07 17:51:05.061315
  Mobile Assistant com.lmsa.lmsaappclient 25 0 2021-03-07 11:37:00.855860
  Roborock com.roborock.smart 68 0 2021-03-07 03:14:09.272135
  Alarm Plus Millenium com.milleniumapps.milleniumalarmplus 222 0 2021-03-06 23:41:27.829973
  PrimeNap com.primenap.pro 128 0 2021-03-06 23:38:17.853604
  PrimeNap com.primenap.pro 126 0 2021-03-06 23:33:34.247084
  Audiobooks com.deezer.audiobooks 15 0 2021-03-06 22:04:05.483322
  Drongscreen com.paplink.screencap 1 0 2021-03-06 20:16:34.074396
  Spotify com.spotify.music 69736114 0 2021-03-06 18:54:42.796764
  AdGuard VPN com.adguard.vpn 33403 0 2021-03-06 13:55:46.989071
  OtcPay scmg.tuNh.FFTs 7 0 2021-03-06 12:26:59.822039
  Impostor Mode com.easybrain.impostor 8 0 2021-03-06 12:19:19.119387
  Flashcards Deluxe com.orangeorapple.flashcards 153 0 2021-03-06 12:12:06.053379
  Chatify chatify.inc 13 0 2021-03-06 12:08:12.087974
  SunCalc org de.th.suncalcorg 27 0 2021-03-06 06:05:56.946501
  Calibre Companion com.multipie.calibreandroid 412 0 2021-03-06 00:37:29.391734
  بانک مسکن com.maskanmobilebank 69 0 2021-03-05 11:21:33.293844
  Download Navi com.tachibana.downloader 9 0 2021-03-05 10:20:57.530029
  Omnichan one.phobos.omnichan 69 0 2021-03-05 01:19:37.022108
  Deezer deezer.android.app 6210501 0 2021-03-04 20:35:24.513225
  Safari Connect 360 com.mitong.SafariConnect360 27 0 2021-03-04 19:07:15.811238
  Swapcard com.swapcard.apps.android 3000376 0 2021-03-04 17:47:35.633162
  FireTV Toolbox com.wolf.firetvsettings.helper 204 0 2021-03-04 17:41:11.432314
  Wolfram Alpha com.wolfram.android.alpha 2017091801 0 2021-03-04 14:30:13.120584
  Elegro Wallet paydeepp.elegro.io 50006 0 2021-03-04 12:48:02.139550
  Circles.Life com.circles.selfcare 597 0 2021-03-04 09:55:29.892468
  DualSpace com.ludashi.dualspace 92 0 2021-03-04 07:35:56.148499
  APN Alter com.samsung.android.apnalter 100101000 0 2021-03-04 07:33:19.944916
  APKPure com.apkpure.aegon 3171611 0 2021-03-04 05:09:23.061814
  globalsources bm.b1.a6 101 0 2021-03-04 04:15:43.363621
  Master Cleaner com.master.cleaner.samy 145 0 2021-03-04 02:12:02.396938
  Doc Scanner com.cv.docscanner 70128 0 2021-03-04 02:03:01.956483
  Shadowrun com.harebrainedschemes.shadowrun_1 20 0 2021-03-03 23:15:12.116400
  Tubi com.tubitv 379 0 2021-03-03 18:17:49.082301
  AdGuard com.adguard.android 10000522 0 2021-03-03 15:46:43.345586
  FiLMiC Pro com.filmic.filmicpro 673 0 2021-03-03 08:45:47.706568
  Instagram com.instagram.android 276028029 0 2021-03-03 07:22:04.619326
  Minecraft pd4a52681.pf704328a.p738992fc 1 0 2021-03-03 06:38:10.538411
  Monochromatic uk.co.richyhbm.monochromatic 17 0 2021-03-03 00:10:01.869320
  #OstaniZdrav si.gov.ostanizdrav 57 0 2021-03-02 23:47:01.633491
  tinyCam PRO com.alexvas.dvr.pro 6230 0 2021-03-02 17:43:05.953773
  MyBeats Air com.yz.mybeats.air 1 0 2021-03-02 16:56:18.248977
  Aqua Mail org.kman.AquaMail 102800003 0 2021-03-02 16:10:19.953491
  Spotify com.spotify.music 69997866 0 2021-03-02 13:51:10.233423
  Supaflix com.supaflix.pro 9 0 2021-03-01 22:48:46.921057
  WhatsApp com.whatsapp 210423000 0 2021-03-01 21:35:57.616610
  imo com.imo.android.imoim 21012031 0 2021-03-01 21:29:39.679924
  com.SCORGames.DriftTuner2019 101 0 2021-03-01 14:16:32.789146
  Camera com.google.android.GoogleCamera 41174009 0 2021-03-01 12:07:35.678828
  FaceApp io.faceapp 4941 0 2021-03-01 11:34:36.053213
  Rekado com.pavelrekun.rekado 74 0 2021-03-01 07:15:46.976234
  Target com.target.ui 1906001911 0 2021-02-28 20:18:49.372976
  XCTrack org.xcontest.XCTrack 90441 0 2021-02-28 19:33:22.346360
  AutoKit cn.manstep.phonemirrorBox 2006110912 0 2021-02-28 18:43:51.618098
  App Backup & Restore mobi.infolife.appbackup 683 0 2021-02-28 16:12:45.541903
  PlantNet org.plantnet 5000012 0 2021-02-28 12:37:38.781786
  MD.emu com.explusalpha.MdEmu 9010528 0 2021-02-27 22:23:35.309310
  сюрприз com.bk33.gamescannerandroid 1 0 2021-02-27 20:38:28.692436
  Win Cheat com.bet.wincheat 11 0 2021-02-27 19:20:21.236507
  Part Time UFO jp.halegg.nazcaf 20 0 2021-02-27 15:48:42.607908
  Secfone com.navayo.secfone.play.alarm 3030016 0 2021-02-27 15:05:24.436106
  SoundWire com.georgie.SoundWire 38 0 2021-02-27 14:52:30.302256
  Duolingo com.duolingo 1099 0 2021-02-27 12:11:53.860365
  OnePlus Buds com.oneplus.twspods 124 0 2021-02-27 09:53:14.271509
  Google Play Music com.google.android.music 65421 0 2021-02-27 05:42:33.234151
  Authenticator com.azure.authenticator 202107623 0 2021-02-27 04:37:38.627076
  spymax package.name.suffix 1 0 2021-02-26 20:20:13.508095
  WhatsAppKg com.geektech.whatsappkg 1 0 2021-02-26 19:46:45.250108
  Yandex Music ru.yandex.music 24021111 0 2021-02-26 19:07:23.280207
  1DM+ idm.internet.download.manager.plus 179 0 2021-02-26 15:34:28.710951
  MX Player com.mxtech.videoplayer.ad 1330001323 0 2021-02-26 15:16:41.750327
  VSCO com.vsco.cam 20003508 0 2021-02-26 12:55:28.703446
  Spotify com.spotify.music 67115312 0 2021-02-26 12:22:35.106119
  ING Banking de.ingdiba.bankingapp 486 0 2021-02-25 17:01:39.394662
  Good Lock com.samsung.android.goodlock 200003000 0 2021-02-25 11:59:27.689714
  Trinus CBVR com.loxai.trinus.full 77 0 2021-02-25 11:01:29.861003
  UC Mini com.uc.browser.en 92 0 2021-02-25 10:32:21.292504
  VideoDownloader com.ucaddon.videomgmtaddonintl 210 0 2021-02-25 10:28:01.846487
  docscan consider.shield.advance 1 0 2021-02-25 10:27:42.666042
  Backgammon uk.co.aifactory.backgammon 57 0 2021-02-25 09:38:46.642313
  File Manager + com.alphainventor.filemanager 2100263 0 2021-02-25 04:22:37.485221
  7Zipper org.joa.zipperplus7 300 0 2021-02-25 04:16:30.384766
  hu.fately.tipking 101 0 2021-02-25 00:25:17.980680
  Share to Computer com.jim.sharetocomputer 1140 0 2021-02-24 11:57:09.892441
  黄历天气 com.calendar.UI 50224 0 2021-02-24 05:31:11.784421
  Live FOOTBALL Streaming HD com.mrsports.live.footballtv 19 0 2021-02-23 19:50:02.248432
  Paper Grunge Theme com.arbeitsnenad.apextheme.papergrunge 1363 0 2021-02-23 19:35:57.772989
  PR4G, l'ER314, V2.0 com.SaintCyrCoetquidan.PR4G 2 0 2021-02-23 18:12:57.854238
  Netflix Premium by APKMODY com.battlebot.dday 79 0 2021-02-23 17:10:48.516020
  Sleep com.urbandroid.sleep 22251 0 2021-02-23 16:46:38.226388
  HappyJoker com.bromista.app 5 0 2021-02-23 12:35:54.367532
  Civ VI com.aspyr.civvi 1964782 0 2021-02-23 12:09:45.839412
  Level com.weibu.gradienterwb 40 0 2021-02-23 11:47:07.899935
  Game Bots com.gb.gamebots 17 0 2021-02-23 10:49:34.768179
  WhatsApp com.whatsapp 210501003 0 2021-02-23 07:52:41.163297
  TERROR PSIPHON com.psiphon3.subscription 148 0 2021-02-23 06:38:41.917228
  BuzzKill com.samruston.buzzkill 79 0 2021-02-23 03:10:03.449349
  NewPipe org.schabi.newpipe 959 0 2021-02-22 21:52:24.180923
  Breadmaker: 50+ recipes ru.organik.apps.recipes.bread 13 0 2021-02-22 18:30:35.189676
  Fretless cn.redenigrate.conferee 12384 0 2021-02-22 16:27:39.892159
  Assault Team com.lucasarts.starwarsccg_goo 515 0 2021-02-22 16:21:48.876066
  Золотые ворота cmf0.c3b5bm90zq.patch 1 0 2021-02-22 15:23:34.702962
  Process Manager com.remote.app 1 0 2021-02-21 22:50:19.630743
  豌豆荚 com.wandoujia.phoenix2 19861 0 2021-02-21 22:22:51.968809
  TechGuide com.swiftspeedappcreator.android60328a9b.. 1000002 0 2021-02-21 17:49:59.080710
  Amazon Shopping com.amazon.mShop.android.shopping 1241198011 0 2021-02-21 15:13:28.800055
  WhatsApp com.whatsapp 210214000 0 2021-02-21 13:35:41.221109
  MangaZone com.ng.mangazone 46 0 2021-02-21 13:25:07.590486
  Banque com.caisseepargne.android.mobilebanking 1070 0 2021-02-21 12:19:27.683585
  Pornhub com.app.pornhub 1738 0 2021-02-21 11:54:56.469573
  Diffuse com.justzht.lwp.music.apple.mod 2945 0 2021-02-21 11:14:42.085719
  Stardew Save Editor com.stardewsaveeditor 52 0 2021-02-21 09:20:14.160067
  Tiny Thief com.roviostars.tinythief 57 0 2021-02-21 08:01:37.742873
  Sectograph prox.lab.calclock 159 0 2021-02-21 04:46:59.482405
  Wealthy Hacker's Keyboard org.pocketworkstation.pckeyboard 1039001 0 2021-02-21 01:30:24.049192
  Crunchyroll com.crunchyroll.crunchyroid 5000 0 2021-02-21 01:29:33.436032
  Trainyard com.noodlecake.trainyard 18 0 2021-02-20 20:47:05.070826
  WEBVIEW TEST com.snc.test.webview2 84 0 2021-02-20 19:40:04.441639
  Mental Math Master com.fivedaysweekend.math 72 0 2021-02-20 19:36:28.368623
  HappyMod com.happymod.apk 88 0 2021-02-20 17:27:39.120001
  JESTINA com.romanson.jestina 76 0 2021-02-20 15:36:55.894152
  CMB cmb.pb 410 0 2021-02-20 15:26:41.016031
  EstlemhaDriver com.OIS.estlemhadriver 1 0 2021-02-20 14:53:38.970841
  Estlemha com.OIS.estlemha 1 0 2021-02-20 14:51:18.147645
  Niagara Launcher bitpit.launcher 441 0 2021-02-20 12:28:44.562625
  Danaku rich.cash.danaku 17 0 2021-02-20 04:05:04.015850
  ES File Explorer com.estrongs.android.pop 225 0 2021-02-19 21:16:20.439345
  ACT Fibernet com.act.mobile.apps 1031 0 2021-02-19 17:07:22.366913
  Animania com.animania 2 0 2021-02-19 11:30:00.661208
  Pandora com.pandora.android 77101 0 2021-02-19 07:15:56.223744
  Life Diary com.hitbytes.minidiarynotes 42 0 2021-02-19 06:50:02.995984
  Hypatia us.spotco.malwarescanner 54 0 2021-02-19 05:52:04.696185
  hello there wocwvy.czyxoxmbauu.slsa 1 0 2021-02-19 04:16:53.829796
  YMusic com.kapp.youtube.final 4224 0 2021-02-19 03:18:22.020395
  Samsung Music com.sec.android.app.music 1622403200 0 2021-02-18 10:05:37.902516
  Packet Receiver com.hl3hl3.packet 1 0 2021-02-18 09:27:47.768905
  Ma3an com.tedmob.moph.tracer 10006 0 2021-02-18 08:21:25.918706
  MyAppSharer com.yschi.MyAppSharer 36 0 2021-02-18 05:23:43.161154
  Ola TV 9 com.ol8ola81607.ola81607 10 0 2021-02-18 05:18:21.369762
  ACP2 com.applisto.appcloner 20022316 0 2021-02-18 04:50:30.559737
  Tinder++ p8d7238b5.pbb73f395.p03b0549f 1 0 2021-02-18 00:47:09.692570
  Iriun Webcam com.jacksoftw.webcam 53 0 2021-02-17 23:06:15.488955
  WiredXDisplay com.splashtop.xdisplay.wired.pro 10000110 0 2021-02-17 22:56:00.642740
  Disney+ com.battlenet.showguide 56 0 2021-02-17 22:10:35.291776
  MiWiFi com.xiaomi.router 50606 0 2021-02-17 18:37:57.065091
  Authenticator com.lastpass.authenticator 1262 0 2021-02-17 11:07:36.756482
  PdaNet+ com.pdanet 4171 0 2021-02-17 10:57:10.558858
  Tornado VPN Pro com.bornehltd.tornadovpn.pro 110 0 2021-02-17 10:22:05.656316
  XRP Live Rate com.vrapps.xrprates 15 0 2021-02-17 09:15:42.864267
  NewPipe org.schabi.newpipe 964 0 2021-02-17 07:45:08.245893
  Luma videoeditor.videomaker.fusion.videofusi... 1 0 2021-02-17 07:25:14.562254
  AutoGuard com.hovans.autoguard 4059 0 2021-02-16 23:53:30.886584
  GoToWebinar com.logmein.gotowebinar 139 0 2021-02-16 21:10:27.644083
  Spotify com.spotify.music 69736114 0 2021-02-16 21:04:32.299849
  Norton App Lock com.symantec.applock 511 0 2021-02-16 16:35:32.681250
  LeaveHomeSafe hk.gov.ogcio.leavehomesafe 49 0 2021-02-16 12:40:30.548619
  BIGO LIVE sg.bigo.live.lite 50 0 2021-02-16 01:42:04.918357
  AntiCovid fr.gouv.android.stopcovid 142 0 2021-02-15 23:31:28.362295
  TEL Keyboard com.tel.keyboard.inputmethod 75 0 2021-02-15 20:57:46.937374
  Android GPS Navigator gps.map.navigator 8 0 2021-02-15 14:26:17.738445
  PicFinder - Image Search com.zu.zu 1 0 2021-02-15 13:06:25.941584
  Smart POS com.app.smartpos 7 0 2021-02-15 12:16:40.501907
  Amazon Appstore com.amazon.venezia 801014610 0 2021-02-15 09:26:33.700419
  SC-OS3 com.jwork.spycamera.candid3 605 0 2021-02-15 08:54:27.151176
  Minecraft - Pocket Edition com.mojang.minecraftpe 30007030 0 2021-02-15 08:23:23.883745
  Signal org.thoughtcrime.securesms 78500 0 2021-02-14 22:35:27.704486
  Nightride FM com.nightridefm 7 0 2021-02-14 20:13:40.272384
  DraStic com.dsemu.drasticcn 25 0 2021-02-13 20:56:39.237008
  SXM Dealer com.siriusxm.dealer 9 0 2021-02-13 19:37:46.308934
  Fingerprint Quick Action com.ztc1997.fingerprint2sleep 37 0 2021-02-13 17:36:10.270724
  1DM+ idm.internet.download.manager.plus 176 0 2021-02-13 16:57:27.761297
  CarStream com.google.android.kk2 43 0 2021-02-13 16:06:56.207342
  MySejahtera my.gov.onegovappstore.mysejahtera 10027 0 2021-02-13 11:47:00.447987
  Spotify com.spotify.music 67639462 0 2021-02-12 20:09:50.765229
  NFC Tools PRO com.wakdev.nfctools.pro 138 0 2021-02-12 19:48:02.919377
  MacroDroid com.arlosoft.macrodroid 50906 0 2021-02-12 18:55:29.395398
  HoloRay com.holoray.isnow 5 0 2021-02-12 18:30:21.156864
  Guide and Free Diamonds for Free com.funmafia.guideforfreediamond.freefir.. 1 0 2021-02-12 16:58:14.730135
  FireDL com.firedl.aidymatic.gp 15 0 2021-02-12 14:45:30.062860
  Web Video Caster com.instantbits.cast.webvideo 3284 0 2021-02-12 14:24:25.982160
  LDA Reparadores com.evalua.lda.repairers 8 0 2021-02-12 13:04:30.534490
  THOP TV live.tech.storm 51 0 2021-02-12 09:07:35.833818
  Aptoide TV cm.aptoidetv.pt 522 0 2021-02-11 22:56:53.383796
  Credit Suisse com.csg.cs.dnmb 444 0 2021-02-11 18:36:53.643608
  SD Maid eu.thedarken.sdm 50008 0 2021-02-11 17:19:53.433507
  MinCraft com.os.mincraftbuildinggame.mcraft 2050 0 2021-02-11 17:03:48.363554
  NovaTV com.bionic.gemini 40 0 2021-02-11 15:27:15.635782
  myMail com.my.mail 31738 0 2021-02-11 14:19:46.182764
  PixelLab com.pixxlaab.labbpixel 1 0 2021-02-11 13:27:02.045894
  miDGT com.dgt.midgt 10110 0 2021-02-11 10:34:54.282173
  Twitter com.twitter.android 28800000 0 2021-02-11 00:38:53.717728
  SwiFTP org.swiftp 17 0 2021-02-11 00:16:02.485850
  cl.archdaily.androidaily 3 0 2021-02-11 00:03:19.388248
  com.rodsapps.poptoshop.app 14 0 2021-02-10 23:25:09.471340
  Baldur's Gate II com.beamdog.baldursgateIIenhancededition 576 0 2021-02-10 22:02:05.899816
  Sexual Fantasy air.rkMedia.SexualFantasies 1005000 0 2021-02-10 21:48:57.481516
  THGSS Player com.mbm_soft.THGSSFreePlayer 17 0 2021-02-10 21:03:31.134720
  Sextube Pro au.com.stklab.minehd 201 0 2021-02-10 20:11:07.102661
  Pornhub com.app.pornhub 1716 0 2021-02-10 20:10:38.478005
  Eroflix mob.play.rflx 51 0 2021-02-10 20:10:32.721874